Wetterdaten: Sonntag, 28.03.2021
Datum Zeit Temp. Aussen Temp. o. S. Temp +5cm Feuchte Auss Luftdruck Regen Sonnenschein Regendauer Solar Windben Empfang
28.03.2021 00:00 5,1 C 4,4 C 2,3 C 76 % 1027,7 hPa 0,0 l/m 0 min 0 min 0 W/m 6,4 km/h (2 Bft) 97,87 %
28.03.2021 00:02 5,1 C 4,4 C 2,3 C 76 % 1027,7 hPa 0,0 l/m 0 min 0 min 0 W/m 6,4 km/h (2 Bft) 97,67 %
28.03.2021 00:04 5,1 C 4,4 C 2,3 C 76 % 1027,7 hPa 0,0 l/m 0 min 0 min 0 W/m 9,7 km/h (2 Bft) 100,00 %
28.03.2021 00:08 5,1 C 4,4 C 2,3 C 76 % 1027,7 hPa 0,0 l/m 0 min 0 min 0 W/m 9,7 km/h (2 Bft) 96,81 %
28.03.2021 00:10 5,1 C 4,4 C 2,3 C 76 % 1027,7 hPa 0,0 l/m 0 min 0 min 0 W/m 6,4 km/h (2 Bft) 95,74 %
28.03.2021 00:12 5,1 C 4,4 C 2,3 C 76 % 1027,7 hPa 0,0 l/m 0 min 0 min 0 W/m 6,4 km/h (2 Bft) 97,87 %
28.03.2021 00:14 5,1 C 4,4 C 2,3 C 76 % 1027,7 hPa 0,0 l/m 0 min 0 min 0 W/m 3,2 km/h (1 Bft) 95,74 %
28.03.2021 00:16 5,1 C 4,4 C 2,3 C 76 % 1027,7 hPa 0,0 l/m 0 min 0 min 0 W/m 3,2 km/h (1 Bft) 93,48 %
28.03.2021 00:18 5,1 C 4,4 C 2,3 C 76 % 1027,8 hPa 0,0 l/m 0 min 0 min 0 W/m 9,7 km/h (2 Bft) 95,74 %
28.03.2021 00:20 5,1 C 4,4 C 2,3 C 76 % 1027,7 hPa 0,0 l/m 0 min 0 min 0 W/m 6,4 km/h (2 Bft) 97,87 %
28.03.2021 00:22 5,2 C 4,4 C 2,3 C 76 % 1027,7 hPa 0,0 l/m 0 min 0 min 0 W/m 6,4 km/h (2 Bft) 97,87 %
28.03.2021 00:24 5,2 C 4,4 C 2,3 C 76 % 1027,7 hPa 0,0 l/m 0 min 0 min 0 W/m 9,7 km/h (2 Bft) 97,87 %
28.03.2021 00:26 5,2 C 4,4 C 2,3 C 76 % 1027,8 hPa 0,0 l/m 0 min 0 min 0 W/m 12,9 km/h (3 Bft) 97,87 %
28.03.2021 00:28 5,3 C 5,0 C 2,3 C 76 % 1027,8 hPa 0,0 l/m 0 min 0 min 0 W/m 16,1 km/h (3 Bft) 97,83 %
28.03.2021 00:30 5,3 C 5,0 C 2,3 C 77 % 1027,8 hPa 0,0 l/m 0 min 0 min 0 W/m 16,1 km/h (3 Bft) 97,87 %
28.03.2021 00:32 5,3 C 5,0 C 2,3 C 77 % 1027,8 hPa 0,0 l/m 0 min 0 min 0 W/m 19,3 km/h (3 Bft) 97,87 %
28.03.2021 00:34 5,3 C 5,0 C 2,3 C 77 % 1027,8 hPa 0,0 l/m 0 min 0 min 0 W/m 12,9 km/h (3 Bft) 95,74 %
28.03.2021 00:36 5,4 C 5,0 C 2,3 C 77 % 1027,8 hPa 0,0 l/m 0 min 0 min 0 W/m 12,9 km/h (3 Bft) 97,87 %
28.03.2021 00:38 5,4 C 5,0 C 2,3 C 77 % 1027,8 hPa 0,0 l/m 0 min 0 min 0 W/m 9,7 km/h (2 Bft) 97,83 %
28.03.2021 00:40 5,4 C 5,0 C 2,3 C 77 % 1027,8 hPa 0,0 l/m 0 min 0 min 0 W/m 9,7 km/h (2 Bft) 95,74 %
28.03.2021 00:42 5,4 C 5,0 C 2,3 C 77 % 1027,8 hPa 0,0 l/m 0 min 0 min 0 W/m 12,9 km/h (3 Bft) 100,00 %
28.03.2021 00:46 5,4 C 5,0 C 2,3 C 77 % 1027,8 hPa 0,0 l/m 0 min 0 min 0 W/m 16,1 km/h (3 Bft) 97,96 %
28.03.2021 00:48 5,4 C 5,0 C 2,3 C 77 % 1027,8 hPa 0,0 l/m 0 min 0 min 0 W/m 9,7 km/h (2 Bft) 100,00 %
28.03.2021 00:50 5,4 C 5,0 C 2,3 C 77 % 1027,8 hPa 0,0 l/m 0 min 0 min 0 W/m 6,4 km/h (2 Bft) 97,87 %
28.03.2021 00:52 5,4 C 5,0 C 2,3 C 77 % 1027,8 hPa 0,0 l/m 0 min 0 min 0 W/m 6,4 km/h (2 Bft) 97,96 %
28.03.2021 00:54 5,4 C 5,0 C 2,3 C 77 % 1027,7 hPa 0,0 l/m 0 min 0 min 0 W/m 9,7 km/h (2 Bft) 98,00 %
28.03.2021 00:56 5,4 C 4,4 C 2,3 C 78 % 1027,8 hPa 0,0 l/m 0 min 0 min 0 W/m 3,2 km/h (1 Bft) 97,87 %
28.03.2021 00:58 5,4 C 4,4 C 2,3 C 78 % 1027,8 hPa 0,0 l/m 0 min 0 min 0 W/m 9,7 km/h (2 Bft) 97,87 %
28.03.2021 01:00 5,4 C 4,4 C 2,3 C 78 % 1027,8 hPa 0,0 l/m 0 min 0 min 0 W/m 9,7 km/h (2 Bft) 97,87 %
28.03.2021 01:02 5,4 C 4,4 C 2,3 C 78 % 1027,8 hPa 0,0 l/m 0 min 0 min 0 W/m 12,9 km/h (3 Bft) 97,87 %
28.03.2021 01:04 5,4 C 4,4 C 2,3 C 78 % 1027,8 hPa 0,0 l/m 0 min 0 min 0 W/m 12,9 km/h (3 Bft) 97,87 %
28.03.2021 01:06 5,4 C 4,4 C 2,3 C 78 % 1027,8 hPa 0,0 l/m 0 min 0 min 0 W/m 6,4 km/h (2 Bft) 95,74 %
28.03.2021 01:08 5,4 C 4,4 C 2,3 C 78 % 1027,8 hPa 0,0 l/m 0 min 0 min 0 W/m 6,4 km/h (2 Bft) 97,87 %
28.03.2021 01:10 5,4 C 4,4 C 2,3 C 78 % 1027,8 hPa 0,0 l/m 0 min 0 min 0 W/m 6,4 km/h (2 Bft) 97,87 %
28.03.2021 01:12 5,4 C 4,4 C 2,3 C 79 % 1027,8 hPa 0,0 l/m 0 min 0 min 0 W/m 3,2 km/h (1 Bft) 95,74 %
28.03.2021 01:14 5,4 C 4,4 C 2,3 C 79 % 1027,8 hPa 0,0 l/m 0 min 0 min 0 W/m 9,7 km/h (2 Bft) 97,83 %
28.03.2021 01:16 5,4 C 4,4 C 2,3 C 79 % 1027,8 hPa 0,0 l/m 0 min 0 min 0 W/m 6,4 km/h (2 Bft) 93,62 %
28.03.2021 01:18 5,4 C 5,0 C 2,3 C 79 % 1027,8 hPa 0,0 l/m 0 min 0 min 0 W/m 9,7 km/h (2 Bft) 97,87 %
28.03.2021 01:20 5,4 C 5,0 C 2,3 C 79 % 1027,8 hPa 0,0 l/m 0 min 0 min 0 W/m 6,4 km/h (2 Bft) 97,87 %
28.03.2021 01:22 5,4 C 5,0 C 2,3 C 79 % 1027,8 hPa 0,0 l/m 0 min 0 min 0 W/m 9,7 km/h (2 Bft) 95,74 %
28.03.2021 01:24 5,4 C 5,0 C 2,8 C 79 % 1027,7 hPa 0,0 l/m 0 min 0 min 0 W/m 6,4 km/h (2 Bft) 97,83 %
28.03.2021 01:26 5,4 C 5,0 C 2,8 C 79 % 1027,7 hPa 0,0 l/m 0 min 0 min 0 W/m 12,9 km/h (3 Bft) 97,87 %
28.03.2021 01:28 5,4 C 5,0 C 2,8 C 79 % 1027,7 hPa 0,0 l/m 0 min 0 min 0 W/m 12,9 km/h (3 Bft) 97,87 %
28.03.2021 01:30 5,5 C 5,0 C 2,8 C 79 % 1027,6 hPa 0,0 l/m 0 min 0 min 0 W/m 9,7 km/h (2 Bft) 95,74 %
28.03.2021 01:32 5,5 C 5,0 C 2,8 C 80 % 1027,7 hPa 0,0 l/m 0 min 0 min 0 W/m 9,7 km/h (2 Bft) 100,00 %
28.03.2021 01:34 5,5 C 5,0 C 2,8 C 80 % 1027,7 hPa 0,0 l/m 0 min 0 min 0 W/m 9,7 km/h (2 Bft) 95,74 %
28.03.2021 01:36 5,5 C 5,0 C 2,8 C 80 % 1027,7 hPa 0,0 l/m 0 min 0 min 0 W/m 6,4 km/h (2 Bft) 97,87 %
28.03.2021 01:38 5,5 C 5,0 C 2,8 C 80 % 1027,7 hPa 0,0 l/m 0 min 0 min 0 W/m 16,1 km/h (3 Bft) 97,87 %
28.03.2021 01:40 5,5 C 5,0 C 2,8 C 80 % 1027,7 hPa 0,0 l/m 0 min 0 min 0 W/m 12,9 km/h (3 Bft) 95,65 %
28.03.2021 01:42 5,5 C 5,0 C 2,8 C 80 % 1027,7 hPa 0,0 l/m 0 min 0 min 0 W/m 6,4 km/h (2 Bft) 97,87 %
28.03.2021 01:44 5,5 C 5,0 C 2,8 C 80 % 1027,7 hPa 0,0 l/m 0 min 0 min 0 W/m 9,7 km/h (2 Bft) 97,87 %
28.03.2021 01:46 5,5 C 5,0 C 2,8 C 80 % 1027,7 hPa 0,0 l/m 0 min 0 min 0 W/m 12,9 km/h (3 Bft) 97,87 %
28.03.2021 01:48 5,6 C 5,0 C 2,8 C 80 % 1027,7 hPa 0,0 l/m 0 min 0 min 0 W/m 12,9 km/h (3 Bft) 97,87 %
28.03.2021 01:50 5,6 C 5,0 C 2,8 C 80 % 1027,7 hPa 0,0 l/m 0 min 0 min 0 W/m 3,2 km/h (1 Bft) 100,00 %
28.03.2021 01:52 5,6 C 5,0 C 2,8 C 80 % 1027,6 hPa 0,0 l/m 0 min 0 min 0 W/m 12,9 km/h (3 Bft) 100,00 %
28.03.2021 01:54 5,6 C 5,0 C 2,8 C 80 % 1027,6 hPa 0,0 l/m 0 min 0 min 0 W/m 9,7 km/h (2 Bft) 100,00 %
28.03.2021 01:56 5,7 C 5,0 C 2,8 C 80 % 1027,6 hPa 0,0 l/m 0 min 0 min 0 W/m 9,7 km/h (2 Bft) 97,87 %
28.03.2021 01:58 5,8 C 5,6 C 2,8 C 80 % 1027,6 hPa 0,0 l/m 0 min 0 min 0 W/m 25,7 km/h (4 Bft) 100,00 %
28.03.2021 03:00 5,8 C 5,6 C 2,8 C 79 % 1027,5 hPa 0,0 l/m 0 min 0 min 0 W/m 12,9 km/h (3 Bft) 100,00 %
28.03.2021 03:02 5,8 C 5,6 C 2,8 C 79 % 1027,6 hPa 0,0 l/m 0 min 0 min 0 W/m 9,7 km/h (2 Bft) 100,00 %
28.03.2021 03:04 5,8 C 5,6 C 2,8 C 79 % 1027,6 hPa 0,0 l/m 0 min 0 min 0 W/m 19,3 km/h (3 Bft) 100,00 %
28.03.2021 03:06 5,9 C 5,6 C 2,8 C 79 % 1027,6 hPa 0,0 l/m 0 min 0 min 0 W/m 12,9 km/h (3 Bft) 100,00 %
28.03.2021 03:08 5,9 C 5,6 C 2,8 C 79 % 1027,5 hPa 0,0 l/m 0 min 0 min 0 W/m 9,7 km/h (2 Bft) 100,00 %
28.03.2021 03:10 5,9 C 5,6 C 2,8 C 79 % 1027,5 hPa 0,0 l/m 0 min 0 min 0 W/m 12,9 km/h (3 Bft) 100,00 %
28.03.2021 03:12 5,9 C 5,6 C 2,8 C 79 % 1027,5 hPa 0,0 l/m 0 min 0 min 0 W/m 12,9 km/h (3 Bft) 100,00 %
28.03.2021 03:14 5,9 C 5,6 C 2,8 C 79 % 1027,5 hPa 0,0 l/m 0 min 0 min 0 W/m 19,3 km/h (3 Bft) 95,65 %
28.03.2021 03:16 5,9 C 5,6 C 2,8 C 79 % 1027,5 hPa 0,0 l/m 0 min 0 min 0 W/m 19,3 km/h (3 Bft) 97,87 %
28.03.2021 03:18 5,9 C 5,6 C 2,8 C 79 % 1027,4 hPa 0,0 l/m 0 min 0 min 0 W/m 16,1 km/h (3 Bft) 97,87 %
28.03.2021 03:20 6,0 C 5,6 C 2,8 C 79 % 1027,4 hPa 0,0 l/m 0 min 0 min 0 W/m 12,9 km/h (3 Bft) 100,00 %
28.03.2021 03:22 6,0 C 5,6 C 2,8 C 79 % 1027,4 hPa 0,0 l/m 0 min 0 min 0 W/m 12,9 km/h (3 Bft) 100,00 %
28.03.2021 03:24 6,0 C 5,6 C 2,8 C 79 % 1027,4 hPa 0,0 l/m 0 min 0 min 0 W/m 12,9 km/h (3 Bft) 97,87 %
28.03.2021 03:26 6,0 C 5,6 C 2,8 C 79 % 1027,3 hPa 0,0 l/m 0 min 0 min 0 W/m 16,1 km/h (3 Bft) 95,65 %
28.03.2021 03:28 6,0 C 5,6 C 2,8 C 79 % 1027,3 hPa 0,0 l/m 0 min 0 min 0 W/m 6,4 km/h (2 Bft) 97,87 %
28.03.2021 03:30 6,0 C 5,6 C 2,8 C 79 % 1027,3 hPa 0,0 l/m 0 min 0 min 0 W/m 12,9 km/h (3 Bft) 97,87 %
28.03.2021 03:32 6,0 C 5,6 C 2,8 C 79 % 1027,2 hPa 0,0 l/m 0 min 0 min 0 W/m 12,9 km/h (3 Bft) 93,75 %
28.03.2021 03:34 6,0 C 5,6 C 2,8 C 79 % 1027,2 hPa 0,0 l/m 0 min 0 min 0 W/m 12,9 km/h (3 Bft) 98,15 %
28.03.2021 03:36 6,0 C 5,6 C 2,8 C 79 % 1027,3 hPa 0,0 l/m 0 min 0 min 0 W/m 16,1 km/h (3 Bft) 97,83 %
28.03.2021 03:38 6,0 C 5,6 C 2,8 C 79 % 1027,2 hPa 0,0 l/m 0 min 0 min 0 W/m 9,7 km/h (2 Bft) 97,92 %
28.03.2021 03:40 6,0 C 5,6 C 3,4 C 79 % 1027,2 hPa 0,0 l/m 0 min 0 min 0 W/m 6,4 km/h (2 Bft) 97,14 %
28.03.2021 03:42 6,0 C 5,6 C 3,4 C 79 % 1027,2 hPa 0,0 l/m 0 min 0 min 0 W/m 9,7 km/h (2 Bft) 95,74 %
28.03.2021 03:44 6,0 C 5,6 C 2,8 C 79 % 1027,2 hPa 0,0 l/m 0 min 0 min 0 W/m 16,1 km/h (3 Bft) 97,87 %
28.03.2021 03:46 6,0 C 5,6 C 3,4 C 79 % 1027,2 hPa 0,0 l/m 0 min 0 min 0 W/m 12,9 km/h (3 Bft) 98,28 %
28.03.2021 03:48 6,0 C 5,6 C 3,4 C 80 % 1027,2 hPa 0,0 l/m 0 min 0 min 0 W/m 12,9 km/h (3 Bft) 97,22 %
28.03.2021 03:50 6,0 C 5,6 C 3,4 C 80 % 1027,2 hPa 0,0 l/m 0 min 0 min 0 W/m 16,1 km/h (3 Bft) 96,55 %
28.03.2021 03:52 6,0 C 5,6 C 3,4 C 80 % 1027,2 hPa 0,0 l/m 0 min 0 min 0 W/m 12,9 km/h (3 Bft) 97,87 %
28.03.2021 03:54 6,1 C 5,6 C 3,4 C 80 % 1027,3 hPa 0,0 l/m 0 min 0 min 0 W/m 12,9 km/h (3 Bft) 95,74 %
28.03.2021 03:56 6,1 C 5,6 C 3,4 C 80 % 1027,2 hPa 0,0 l/m 0 min 0 min 0 W/m 16,1 km/h (3 Bft) 97,14 %
28.03.2021 03:58 6,1 C 5,6 C 2,8 C 80 % 1027,2 hPa 0,0 l/m 0 min 0 min 0 W/m 12,9 km/h (3 Bft) 93,62 %
28.03.2021 04:00 6,1 C 5,6 C 2,8 C 80 % 1027,2 hPa 0,0 l/m 0 min 0 min 0 W/m 6,4 km/h (2 Bft) 96,55 %
28.03.2021 04:02 6,0 C 5,6 C 2,8 C 80 % 1027,2 hPa 0,0 l/m 0 min 0 min 0 W/m 6,4 km/h (2 Bft) 90,00 %
28.03.2021 04:04 6,0 C 5,0 C 2,8 C 80 % 1027,2 hPa 0,0 l/m 0 min 0 min 0 W/m 9,7 km/h (2 Bft) 95,74 %
28.03.2021 04:06 6,0 C 5,0 C 2,8 C 80 % 1027,2 hPa 0,0 l/m 0 min 0 min 0 W/m 9,7 km/h (2 Bft) 95,74 %
28.03.2021 04:08 6,0 C 5,0 C 2,8 C 80 % 1027,1 hPa 0,0 l/m 0 min 0 min 0 W/m 6,4 km/h (2 Bft) 97,87 %
28.03.2021 04:10 6,0 C 5,0 C 2,8 C 80 % 1027,1 hPa 0,0 l/m 0 min 0 min 0 W/m 6,4 km/h (2 Bft) 95,74 %
28.03.2021 04:12 6,0 C 5,0 C 2,8 C 80 % 1027,1 hPa 0,0 l/m 0 min 0 min 0 W/m 9,7 km/h (2 Bft) 97,87 %
28.03.2021 04:14 6,0 C 5,0 C 2,8 C 80 % 1027,1 hPa 0,0 l/m 0 min 0 min 0 W/m 6,4 km/h (2 Bft) 97,83 %
28.03.2021 04:16 5,9 C 5,0 C 2,8 C 80 % 1027,1 hPa 0,0 l/m 0 min 0 min 0 W/m 9,7 km/h (2 Bft) 97,87 %
28.03.2021 04:18 5,9 C 5,0 C 2,8 C 80 % 1027,1 hPa 0,0 l/m 0 min 0 min 0 W/m 6,4 km/h (2 Bft) 97,87 %
28.03.2021 04:20 5,9 C 5,0 C 2,8 C 80 % 1027,1 hPa 0,0 l/m 0 min 0 min 0 W/m 6,4 km/h (2 Bft) 97,87 %
28.03.2021 04:22 5,9 C 5,0 C 2,8 C 81 % 1027,1 hPa 0,0 l/m 0 min 0 min 0 W/m 3,2 km/h (1 Bft) 95,74 %
28.03.2021 04:24 5,9 C 5,0 C 2,8 C 81 % 1027,2 hPa 0,0 l/m 0 min 0 min 0 W/m 3,2 km/h (1 Bft) 97,87 %
28.03.2021 04:26 5,9 C 5,0 C 2,8 C 81 % 1027,2 hPa 0,0 l/m 0 min 0 min 0 W/m 3,2 km/h (1 Bft) 97,83 %
28.03.2021 04:28 5,8 C 5,0 C 2,8 C 81 % 1027,1 hPa 0,0 l/m 0 min 0 min 0 W/m 6,4 km/h (2 Bft) 97,87 %
28.03.2021 04:30 5,8 C 5,0 C 2,8 C 81 % 1027,2 hPa 0,0 l/m 0 min 0 min 0 W/m 6,4 km/h (2 Bft) 95,74 %
28.03.2021 04:32 5,8 C 5,0 C 2,8 C 81 % 1027,2 hPa 0,0 l/m 0 min 0 min 0 W/m 6,4 km/h (2 Bft) 97,92 %
28.03.2021 04:34 5,8 C 5,0 C 2,8 C 81 % 1027,2 hPa 0,0 l/m 0 min 0 min 0 W/m 3,2 km/h (1 Bft) 97,87 %
28.03.2021 04:36 5,8 C 5,0 C 2,8 C 81 % 1027,2 hPa 0,0 l/m 0 min 0 min 0 W/m 3,2 km/h (1 Bft) 97,92 %
28.03.2021 04:38 5,8 C 5,0 C 2,8 C 81 % 1027,2 hPa 0,0 l/m 0 min 0 min 0 W/m 0,0 km/h (0 Bft) 97,87 %
28.03.2021 04:40 5,8 C 5,0 C 2,8 C 82 % 1027,1 hPa 0,0 l/m 0 min 0 min 0 W/m 6,4 km/h (2 Bft) 97,87 %
28.03.2021 04:42 5,8 C 5,0 C 2,8 C 82 % 1027,1 hPa 0,0 l/m 0 min 0 min 0 W/m 3,2 km/h (1 Bft) 97,87 %
28.03.2021 04:44 5,8 C 5,0 C 2,8 C 82 % 1027,1 hPa 0,0 l/m 0 min 0 min 0 W/m 0,0 km/h (0 Bft) 97,87 %
28.03.2021 04:46 5,8 C 5,0 C 2,8 C 82 % 1027,1 hPa 0,0 l/m 0 min 0 min 0 W/m 0,0 km/h (0 Bft) 95,74 %
28.03.2021 04:48 5,8 C 5,0 C 2,8 C 82 % 1027,1 hPa 0,0 l/m 0 min 0 min 0 W/m 3,2 km/h (1 Bft) 97,83 %
28.03.2021 04:50 5,8 C 5,0 C 2,8 C 82 % 1027,1 hPa 0,0 l/m 0 min 0 min 0 W/m 3,2 km/h (1 Bft) 97,87 %
28.03.2021 04:52 5,8 C 5,0 C 2,8 C 82 % 1027,1 hPa 0,0 l/m 0 min 0 min 0 W/m 3,2 km/h (1 Bft) 95,74 %
28.03.2021 04:54 5,7 C 5,0 C 2,8 C 82 % 1027,1 hPa 0,0 l/m 0 min 0 min 0 W/m 3,2 km/h (1 Bft) 97,87 %
28.03.2021 04:56 5,7 C 5,0 C 2,8 C 82 % 1027,2 hPa 0,0 l/m 0 min 0 min 0 W/m 3,2 km/h (1 Bft) 95,74 %
28.03.2021 04:58 5,7 C 4,4 C 2,8 C 82 % 1027,2 hPa 0,0 l/m 0 min 0 min 0 W/m 6,4 km/h (2 Bft) 95,74 %
28.03.2021 05:00 5,7 C 4,4 C 2,3 C 82 % 1027,1 hPa 0,0 l/m 0 min 0 min 0 W/m 6,4 km/h (2 Bft) 95,65 %
28.03.2021 05:02 5,6 C 4,4 C 2,3 C 82 % 1027,1 hPa 0,0 l/m 0 min 0 min 0 W/m 3,2 km/h (1 Bft) 95,74 %
28.03.2021 05:04 5,6 C 4,4 C 2,3 C 82 % 1027,1 hPa 0,0 l/m 0 min 0 min 0 W/m 3,2 km/h (1 Bft) 93,62 %
28.03.2021 05:06 5,6 C 4,4 C 2,3 C 82 % 1027,0 hPa 0,0 l/m 0 min 0 min 0 W/m 6,4 km/h (2 Bft) 95,74 %
28.03.2021 05:08 5,6 C 4,4 C 2,3 C 82 % 1027,0 hPa 0,0 l/m 0 min 0 min 0 W/m 3,2 km/h (1 Bft) 93,62 %
28.03.2021 05:10 5,6 C 4,4 C 2,3 C 82 % 1027,1 hPa 0,0 l/m 0 min 0 min 0 W/m 3,2 km/h (1 Bft) 97,87 %
28.03.2021 05:12 5,5 C 4,4 C 2,3 C 82 % 1027,0 hPa 0,0 l/m 0 min 0 min 0 W/m 6,4 km/h (2 Bft) 95,65 %
28.03.2021 05:14 5,5 C 4,4 C 2,3 C 83 % 1027,0 hPa 0,0 l/m 0 min 0 min 0 W/m 6,4 km/h (2 Bft) 97,87 %
28.03.2021 05:16 5,5 C 4,4 C 2,3 C 83 % 1027,0 hPa 0,0 l/m 0 min 0 min 0 W/m 3,2 km/h (1 Bft) 97,87 %
28.03.2021 05:18 5,5 C 4,4 C 2,3 C 83 % 1027,0 hPa 0,0 l/m 0 min 0 min 0 W/m 6,4 km/h (2 Bft) 97,87 %
28.03.2021 05:20 5,4 C 4,4 C 2,3 C 83 % 1027,0 hPa 0,0 l/m 0 min 0 min 0 W/m 6,4 km/h (2 Bft) 97,87 %
28.03.2021 05:22 5,4 C 4,4 C 2,3 C 83 % 1027,0 hPa 0,0 l/m 0 min 0 min 0 W/m 3,2 km/h (1 Bft) 95,74 %
28.03.2021 05:24 5,4 C 4,4 C 2,3 C 83 % 1027,0 hPa 0,0 l/m 0 min 0 min 0 W/m 6,4 km/h (2 Bft) 97,83 %
28.03.2021 05:26 5,4 C 4,4 C 2,3 C 83 % 1027,0 hPa 0,0 l/m 0 min 0 min 0 W/m 3,2 km/h (1 Bft) 93,62 %
28.03.2021 05:28 5,4 C 4,4 C 2,3 C 83 % 1027,0 hPa 0,0 l/m 0 min 0 min 0 W/m 6,4 km/h (2 Bft) 97,87 %
28.03.2021 05:30 5,4 C 4,4 C 2,3 C 83 % 1027,1 hPa 0,0 l/m 0 min 0 min 0 W/m 6,4 km/h (2 Bft) 97,87 %
28.03.2021 05:32 5,4 C 4,4 C 2,3 C 83 % 1027,1 hPa 0,0 l/m 0 min 0 min 0 W/m 9,7 km/h (2 Bft) 55,32 %
28.03.2021 05:34 5,3 C 4,4 C 2,3 C 83 % 1027,1 hPa 0,0 l/m 0 min 0 min 0 W/m 6,4 km/h (2 Bft) 100,00 %
28.03.2021 05:36 5,3 C 4,4 C 2,3 C 83 % 1027,1 hPa 0,0 l/m 0 min 0 min 0 W/m 6,4 km/h (2 Bft) 97,83 %
28.03.2021 05:38 5,3 C 4,4 C 2,3 C 83 % 1027,0 hPa 0,0 l/m 0 min 0 min 0 W/m 12,9 km/h (3 Bft) 97,87 %
28.03.2021 05:40 5,3 C 4,4 C 2,3 C 83 % 1027,1 hPa 0,0 l/m 0 min 0 min 0 W/m 6,4 km/h (2 Bft) 95,74 %
28.03.2021 05:42 5,3 C 4,4 C 2,3 C 84 % 1027,1 hPa 0,0 l/m 0 min 0 min 0 W/m 12,9 km/h (3 Bft) 95,74 %
28.03.2021 05:44 5,3 C 4,4 C 2,3 C 84 % 1027,0 hPa 0,0 l/m 0 min 0 min 0 W/m 6,4 km/h (2 Bft) 97,87 %
28.03.2021 05:46 5,3 C 4,4 C 2,3 C 84 % 1026,9 hPa 0,0 l/m 0 min 0 min 0 W/m 12,9 km/h (3 Bft) 97,87 %
28.03.2021 05:48 5,2 C 4,4 C 2,3 C 84 % 1026,9 hPa 0,0 l/m 0 min 0 min 0 W/m 9,7 km/h (2 Bft) 95,65 %
28.03.2021 05:50 5,2 C 4,4 C 2,3 C 84 % 1027,0 hPa 0,0 l/m 0 min 0 min 0 W/m 6,4 km/h (2 Bft) 97,87 %
28.03.2021 05:52 5,2 C 4,4 C 2,3 C 84 % 1027,0 hPa 0,0 l/m 0 min 0 min 0 W/m 6,4 km/h (2 Bft) 97,87 %
28.03.2021 05:54 5,2 C 4,4 C 2,3 C 84 % 1026,9 hPa 0,0 l/m 0 min 0 min 0 W/m 6,4 km/h (2 Bft) 97,87 %
28.03.2021 05:56 5,2 C 4,4 C 2,3 C 84 % 1026,9 hPa 0,0 l/m 0 min 0 min 0 W/m 6,4 km/h (2 Bft) 95,74 %
28.03.2021 05:58 5,2 C 4,4 C 2,3 C 84 % 1027,0 hPa 0,0 l/m 0 min 0 min 0 W/m 12,9 km/h (3 Bft) 95,74 %
28.03.2021 06:00 5,2 C 4,4 C 2,3 C 84 % 1027,0 hPa 0,0 l/m 0 min 0 min 0 W/m 6,4 km/h (2 Bft) 97,83 %
28.03.2021 06:02 5,2 C 4,4 C 2,3 C 84 % 1026,9 hPa 0,0 l/m 0 min 0 min 0 W/m 6,4 km/h (2 Bft) 97,87 %
28.03.2021 06:04 5,2 C 4,4 C 2,3 C 84 % 1027,0 hPa 0,0 l/m 0 min 0 min 0 W/m 12,9 km/h (3 Bft) 95,74 %
28.03.2021 06:08 5,2 C 4,4 C 2,3 C 84 % 1027,0 hPa 0,0 l/m 0 min 0 min 0 W/m 12,9 km/h (3 Bft) 97,87 %
28.03.2021 06:10 5,2 C 4,4 C 2,3 C 84 % 1027,0 hPa 0,0 l/m 0 min 0 min 0 W/m 6,4 km/h (2 Bft) 95,74 %
28.03.2021 06:12 5,2 C 4,4 C 2,3 C 84 % 1027,0 hPa 0,0 l/m 0 min 0 min 0 W/m 6,4 km/h (2 Bft) 97,83 %
28.03.2021 06:14 5,2 C 4,4 C 2,3 C 84 % 1027,0 hPa 0,0 l/m 0 min 0 min 0 W/m 6,4 km/h (2 Bft) 97,87 %
28.03.2021 06:16 5,2 C 4,4 C 2,3 C 84 % 1027,0 hPa 0,0 l/m 0 min 0 min 0 W/m 6,4 km/h (2 Bft) 98,11 %
28.03.2021 06:18 5,1 C 4,4 C 2,3 C 84 % 1027,1 hPa 0,0 l/m 0 min 0 min 0 W/m 9,7 km/h (2 Bft) 97,56 %
28.03.2021 06:20 5,1 C 4,4 C 2,3 C 84 % 1027,1 hPa 0,0 l/m 0 min 0 min 0 W/m 6,4 km/h (2 Bft) 95,74 %
28.03.2021 06:22 5,1 C 4,4 C 2,3 C 84 % 1027,0 hPa 0,0 l/m 0 min 0 min 0 W/m 9,7 km/h (2 Bft) 97,87 %
28.03.2021 06:24 5,2 C 4,4 C 2,3 C 84 % 1027,0 hPa 0,0 l/m 0 min 0 min 0 W/m 9,7 km/h (2 Bft) 95,65 %
28.03.2021 06:26 5,1 C 4,4 C 2,3 C 84 % 1027,1 hPa 0,0 l/m 0 min 0 min 0 W/m 12,9 km/h (3 Bft) 97,87 %
28.03.2021 06:28 5,1 C 4,4 C 2,3 C 85 % 1027,1 hPa 0,0 l/m 0 min 0 min 0 W/m 12,9 km/h (3 Bft) 97,87 %
28.03.2021 06:30 5,1 C 4,4 C 2,3 C 85 % 1027,1 hPa 0,0 l/m 0 min 0 min 0 W/m 6,4 km/h (2 Bft) 100,00 %
28.03.2021 06:32 5,1 C 4,4 C 2,3 C 85 % 1027,1 hPa 0,0 l/m 0 min 0 min 0 W/m 12,9 km/h (3 Bft) 100,00 %
28.03.2021 06:34 5,2 C 4,4 C 2,3 C 84 % 1027,1 hPa 0,0 l/m 0 min 0 min 0 W/m 9,7 km/h (2 Bft) 97,87 %
28.03.2021 06:36 5,1 C 4,4 C 2,3 C 84 % 1027,1 hPa 0,0 l/m 0 min 0 min 0 W/m 6,4 km/h (2 Bft) 97,83 %
28.03.2021 06:38 5,2 C 4,4 C 2,3 C 85 % 1027,2 hPa 0,0 l/m 0 min 0 min 0 W/m 12,9 km/h (3 Bft) 97,87 %
28.03.2021 06:40 5,2 C 4,4 C 2,3 C 85 % 1027,1 hPa 0,0 l/m 0 min 0 min 0 W/m 6,4 km/h (2 Bft) 100,00 %
28.03.2021 06:42 5,2 C 4,4 C 2,3 C 85 % 1027,2 hPa 0,0 l/m 0 min 0 min 0 W/m 9,7 km/h (2 Bft) 97,87 %
28.03.2021 06:44 5,2 C 4,4 C 2,3 C 85 % 1027,2 hPa 0,0 l/m 0 min 0 min 0 W/m 12,9 km/h (3 Bft) 100,00 %
28.03.2021 06:46 5,2 C 4,4 C 2,3 C 85 % 1027,1 hPa 0,0 l/m 0 min 0 min 0 W/m 12,9 km/h (3 Bft) 100,00 %
28.03.2021 06:48 5,2 C 4,4 C 2,3 C 85 % 1027,2 hPa 0,0 l/m 0 min 0 min 0 W/m 3,2 km/h (1 Bft) 100,00 %
28.03.2021 06:50 5,2 C 4,4 C 2,8 C 85 % 1027,2 hPa 0,0 l/m 0 min 0 min 0 W/m 6,4 km/h (2 Bft) 100,00 %
28.03.2021 06:52 5,3 C 4,4 C 2,8 C 85 % 1027,2 hPa 0,0 l/m 0 min 0 min 0 W/m 6,4 km/h (2 Bft) 97,87 %
28.03.2021 06:54 5,3 C 5,0 C 2,8 C 85 % 1027,2 hPa 0,0 l/m 0 min 0 min 0 W/m 6,4 km/h (2 Bft) 100,00 %
28.03.2021 06:56 5,3 C 5,0 C 2,8 C 85 % 1027,3 hPa 0,0 l/m 0 min 0 min 0 W/m 6,4 km/h (2 Bft) 97,87 %
28.03.2021 06:58 5,3 C 5,0 C 2,8 C 85 % 1027,3 hPa 0,0 l/m 0 min 0 min 0 W/m 6,4 km/h (2 Bft) 100,00 %
28.03.2021 07:00 5,3 C 5,0 C 2,8 C 85 % 1027,3 hPa 0,0 l/m 0 min 0 min 0 W/m 6,4 km/h (2 Bft) 97,83 %
28.03.2021 07:02 5,3 C 4,4 C 2,8 C 85 % 1027,3 hPa 0,0 l/m 0 min 0 min 0 W/m 6,4 km/h (2 Bft) 100,00 %
28.03.2021 07:04 5,3 C 4,4 C 2,8 C 85 % 1027,3 hPa 0,0 l/m 0 min 0 min 0 W/m 6,4 km/h (2 Bft) 97,92 %
28.03.2021 07:06 5,3 C 4,4 C 2,8 C 85 % 1027,2 hPa 0,0 l/m 0 min 0 min 0 W/m 6,4 km/h (2 Bft) 100,00 %
28.03.2021 07:08 5,3 C 4,4 C 2,3 C 85 % 1027,2 hPa 0,0 l/m 0 min 0 min 0 W/m 6,4 km/h (2 Bft) 100,00 %
28.03.2021 07:10 5,3 C 4,4 C 2,3 C 85 % 1027,2 hPa 0,0 l/m 0 min 0 min 0 W/m 6,4 km/h (2 Bft) 100,00 %
28.03.2021 07:12 5,3 C 4,4 C 2,3 C 85 % 1027,2 hPa 0,0 l/m 0 min 0 min 0 W/m 6,4 km/h (2 Bft) 97,87 %
28.03.2021 07:14 5,3 C 4,4 C 2,3 C 85 % 1027,2 hPa 0,0 l/m 0 min 0 min 0 W/m 6,4 km/h (2 Bft) 100,00 %
28.03.2021 07:16 5,3 C 4,4 C 2,3 C 85 % 1027,3 hPa 0,0 l/m 0 min 0 min 0 W/m 6,4 km/h (2 Bft) 100,00 %
28.03.2021 07:18 5,3 C 4,4 C 2,3 C 85 % 1027,2 hPa 0,0 l/m 0 min 0 min 0 W/m 6,4 km/h (2 Bft) 97,87 %
28.03.2021 07:20 5,3 C 4,4 C 2,3 C 85 % 1027,2 hPa 0,0 l/m 0 min 0 min 0 W/m 6,4 km/h (2 Bft) 100,00 %
28.03.2021 07:22 5,3 C 4,4 C 2,8 C 85 % 1027,2 hPa 0,0 l/m 0 min 0 min 0 W/m 6,4 km/h (2 Bft) 97,83 %
28.03.2021 07:24 5,3 C 4,4 C 2,8 C 85 % 1027,2 hPa 0,0 l/m 0 min 0 min 0 W/m 6,4 km/h (2 Bft) 100,00 %
28.03.2021 07:26 5,3 C 4,4 C 2,8 C 85 % 1027,1 hPa 0,0 l/m 0 min 0 min 0 W/m 6,4 km/h (2 Bft) 100,00 %
28.03.2021 07:28 5,3 C 5,0 C 2,8 C 85 % 1027,0 hPa 0,0 l/m 0 min 0 min 0 W/m 12,9 km/h (3 Bft) 100,00 %
28.03.2021 07:30 5,3 C 5,0 C 2,8 C 85 % 1027,0 hPa 0,0 l/m 0 min 0 min 5 W/m 9,7 km/h (2 Bft) 100,00 %
28.03.2021 07:32 5,3 C 5,0 C 2,8 C 85 % 1027,0 hPa 0,0 l/m 0 min 0 min 5 W/m 12,9 km/h (3 Bft) 97,87 %
28.03.2021 07:34 5,3 C 5,0 C 2,8 C 85 % 1027,0 hPa 0,0 l/m 0 min 0 min 5 W/m 9,7 km/h (2 Bft) 100,00 %
28.03.2021 07:36 5,3 C 5,0 C 2,8 C 85 % 1027,0 hPa 0,0 l/m 0 min 0 min 5 W/m 12,9 km/h (3 Bft) 100,00 %
28.03.2021 07:38 5,3 C 5,0 C 2,8 C 86 % 1027,0 hPa 0,0 l/m 0 min 0 min 7 W/m 12,9 km/h (3 Bft) 100,00 %
28.03.2021 07:40 5,4 C 5,0 C 2,8 C 86 % 1027,0 hPa 0,0 l/m 0 min 0 min 7 W/m 12,9 km/h (3 Bft) 100,00 %
28.03.2021 07:42 5,4 C 5,0 C 2,8 C 86 % 1027,0 hPa 0,0 l/m 0 min 0 min 9 W/m 12,9 km/h (3 Bft) 100,00 %
28.03.2021 07:44 5,4 C 5,0 C 2,8 C 86 % 1027,0 hPa 0,0 l/m 0 min 0 min 9 W/m 16,1 km/h (3 Bft) 95,74 %
28.03.2021 07:46 5,4 C 5,0 C 2,8 C 86 % 1027,0 hPa 0,0 l/m 0 min 0 min 11 W/m 12,9 km/h (3 Bft) 100,00 %
28.03.2021 07:48 5,4 C 5,0 C 2,8 C 86 % 1026,9 hPa 0,0 l/m 0 min 0 min 12 W/m 12,9 km/h (3 Bft) 100,00 %
28.03.2021 07:50 5,5 C 5,0 C 2,8 C 86 % 1026,9 hPa 0,0 l/m 0 min 0 min 15 W/m 12,9 km/h (3 Bft) 100,00 %
28.03.2021 07:52 5,5 C 5,0 C 2,8 C 86 % 1027,0 hPa 0,0 l/m 0 min 0 min 16 W/m 12,9 km/h (3 Bft) 100,00 %
28.03.2021 07:54 5,5 C 5,0 C 2,8 C 86 % 1027,0 hPa 0,0 l/m 0 min 0 min 14 W/m 9,7 km/h (2 Bft) 100,00 %
28.03.2021 07:56 5,5 C 5,6 C 2,8 C 86 % 1027,0 hPa 0,0 l/m 0 min 0 min 15 W/m 9,7 km/h (2 Bft) 97,87 %
28.03.2021 07:58 5,6 C 5,6 C 3,4 C 86 % 1027,0 hPa 0,0 l/m 0 min 0 min 16 W/m 9,7 km/h (2 Bft) 95,65 %
28.03.2021 08:00 5,6 C 5,6 C 3,4 C 86 % 1027,1 hPa 0,0 l/m 0 min 0 min 16 W/m 6,4 km/h (2 Bft) 95,74 %
28.03.2021 08:02 5,6 C 5,6 C 3,4 C 86 % 1027,1 hPa 0,0 l/m 0 min 0 min 18 W/m 9,7 km/h (2 Bft) 95,74 %
28.03.2021 08:04 5,8 C 5,6 C 3,4 C 86 % 1027,1 hPa 0,0 l/m 0 min 0 min 18 W/m 12,9 km/h (3 Bft) 97,87 %
28.03.2021 08:06 5,8 C 5,6 C 3,4 C 86 % 1027,1 hPa 0,0 l/m 0 min 0 min 17 W/m 12,9 km/h (3 Bft) 97,87 %
28.03.2021 08:08 5,8 C 5,6 C 3,4 C 86 % 1027,1 hPa 0,0 l/m 0 min 0 min 18 W/m 6,4 km/h (2 Bft) 93,62 %
28.03.2021 08:10 5,9 C 5,6 C 3,4 C 86 % 1027,1 hPa 0,0 l/m 0 min 0 min 18 W/m 6,4 km/h (2 Bft) 97,83 %
28.03.2021 08:12 5,9 C 5,6 C 3,4 C 86 % 1027,1 hPa 0,0 l/m 0 min 0 min 18 W/m 6,4 km/h (2 Bft) 95,74 %
28.03.2021 08:14 5,9 C 5,6 C 3,4 C 86 % 1027,2 hPa 0,0 l/m 0 min 0 min 18 W/m 12,9 km/h (3 Bft) 97,87 %
28.03.2021 08:16 6,0 C 5,6 C 3,4 C 86 % 1027,2 hPa 0,0 l/m 0 min 0 min 21 W/m 12,9 km/h (3 Bft) 95,74 %
28.03.2021 08:18 6,0 C 5,6 C 3,4 C 86 % 1027,2 hPa 0,0 l/m 0 min 0 min 23 W/m 6,4 km/h (2 Bft) 89,36 %
28.03.2021 08:20 6,0 C 5,6 C 3,4 C 86 % 1027,2 hPa 0,0 l/m 0 min 0 min 25 W/m 12,9 km/h (3 Bft) 87,23 %
28.03.2021 08:22 6,1 C 6,1 C 3,4 C 85 % 1027,3 hPa 0,0 l/m 0 min 0 min 25 W/m 12,9 km/h (3 Bft) 80,43 %
28.03.2021 08:24 6,1 C 6,1 C 3,4 C 85 % 1027,2 hPa 0,0 l/m 0 min 0 min 26 W/m 12,9 km/h (3 Bft) 89,36 %
28.03.2021 08:26 6,1 C 6,1 C 3,4 C 85 % 1027,2 hPa 0,0 l/m 0 min 0 min 26 W/m 6,4 km/h (2 Bft) 89,36 %
28.03.2021 08:28 6,2 C 6,1 C 3,4 C 85 % 1027,2 hPa 0,0 l/m 0 min 0 min 30 W/m 6,4 km/h (2 Bft) 89,36 %
28.03.2021 08:30 6,2 C 6,1 C 3,9 C 85 % 1027,2 hPa 0,0 l/m 0 min 0 min 32 W/m 12,9 km/h (3 Bft) 80,85 %
28.03.2021 08:32 6,3 C 6,1 C 3,9 C 85 % 1027,1 hPa 0,0 l/m 0 min 0 min 33 W/m 6,4 km/h (2 Bft) 87,23 %
28.03.2021 08:34 6,3 C 6,1 C 3,9 C 85 % 1027,1 hPa 0,0 l/m 0 min 0 min 36 W/m 9,7 km/h (2 Bft) 91,30 %
28.03.2021 08:36 6,3 C 6,1 C 3,9 C 85 % 1027,1 hPa 0,0 l/m 0 min 0 min 39 W/m 9,7 km/h (2 Bft) 89,36 %
28.03.2021 08:38 6,3 C 6,1 C 3,9 C 85 % 1027,0 hPa 0,0 l/m 0 min 0 min 43 W/m 16,1 km/h (3 Bft) 93,62 %
28.03.2021 08:40 6,4 C 6,1 C 3,9 C 85 % 1027,0 hPa 0,0 l/m 0 min 0 min 47 W/m 6,4 km/h (2 Bft) 93,62 %
28.03.2021 08:42 6,4 C 6,1 C 3,9 C 85 % 1027,0 hPa 0,0 l/m 0 min 0 min 51 W/m 9,7 km/h (2 Bft) 93,62 %
28.03.2021 08:44 6,4 C 6,1 C 3,9 C 85 % 1027,0 hPa 0,0 l/m 0 min 0 min 54 W/m 6,4 km/h (2 Bft) 93,48 %
28.03.2021 08:46 6,5 C 6,7 C 3,9 C 85 % 1027,1 hPa 0,0 l/m 0 min 0 min 50 W/m 12,9 km/h (3 Bft) 95,74 %
28.03.2021 08:48 6,5 C 6,7 C 3,9 C 85 % 1027,0 hPa 0,0 l/m 0 min 0 min 46 W/m 16,1 km/h (3 Bft) 95,74 %
28.03.2021 08:50 6,6 C 6,7 C 3,9 C 85 % 1027,0 hPa 0,0 l/m 0 min 0 min 46 W/m 6,4 km/h (2 Bft) 95,74 %
28.03.2021 08:52 6,6 C 6,7 C 3,9 C 85 % 1027,0 hPa 0,0 l/m 0 min 0 min 49 W/m 9,7 km/h (2 Bft) 95,74 %
28.03.2021 08:54 6,6 C 6,7 C 4,5 C 85 % 1027,0 hPa 0,0 l/m 0 min 0 min 53 W/m 9,7 km/h (2 Bft) 93,48 %
28.03.2021 08:56 6,7 C 6,7 C 4,5 C 85 % 1027,0 hPa 0,0 l/m 0 min 0 min 57 W/m 6,4 km/h (2 Bft) 93,62 %
28.03.2021 08:58 6,8 C 6,7 C 4,5 C 85 % 1027,0 hPa 0,0 l/m 0 min 0 min 62 W/m 12,9 km/h (3 Bft) 97,87 %
28.03.2021 09:00 6,8 C 6,7 C 4,5 C 85 % 1027,0 hPa 0,0 l/m 0 min 0 min 69 W/m 9,7 km/h (2 Bft) 93,62 %
28.03.2021 09:02 6,9 C 6,7 C 4,5 C 85 % 1027,0 hPa 0,0 l/m 0 min 0 min 76 W/m 16,1 km/h (3 Bft) 95,83 %
28.03.2021 09:04 7,0 C 7,2 C 4,5 C 85 % 1027,1 hPa 0,0 l/m 0 min 0 min 78 W/m 12,9 km/h (3 Bft) 97,87 %
28.03.2021 09:06 7,0 C 7,2 C 4,5 C 85 % 1027,0 hPa 0,0 l/m 0 min 0 min 81 W/m 12,9 km/h (3 Bft) 97,83 %
28.03.2021 09:08 7,1 C 7,2 C 4,5 C 85 % 1027,0 hPa 0,0 l/m 0 min 0 min 88 W/m 12,9 km/h (3 Bft) 97,87 %
28.03.2021 09:10 7,1 C 7,2 C 4,5 C 84 % 1027,0 hPa 0,0 l/m 0 min 0 min 94 W/m 12,9 km/h (3 Bft) 95,74 %
28.03.2021 09:12 7,3 C 7,2 C 5,0 C 84 % 1027,0 hPa 0,0 l/m 0 min 0 min 92 W/m 12,9 km/h (3 Bft) 100,00 %
28.03.2021 09:14 7,4 C 7,8 C 5,0 C 84 % 1027,0 hPa 0,0 l/m 0 min 0 min 80 W/m 16,1 km/h (3 Bft) 97,87 %
28.03.2021 09:16 7,5 C 7,8 C 5,0 C 84 % 1027,0 hPa 0,0 l/m 0 min 0 min 67 W/m 19,3 km/h (3 Bft) 97,87 %
28.03.2021 09:18 7,6 C 7,8 C 5,0 C 83 % 1027,0 hPa 0,0 l/m 0 min 0 min 67 W/m 12,9 km/h (3 Bft) 97,87 %
28.03.2021 09:20 7,6 C 7,8 C 5,0 C 83 % 1027,0 hPa 0,0 l/m 0 min 0 min 75 W/m 16,1 km/h (3 Bft) 95,65 %
28.03.2021 09:22 7,7 C 7,8 C 5,0 C 83 % 1027,0 hPa 0,0 l/m 0 min 0 min 99 W/m 16,1 km/h (3 Bft) 97,87 %
28.03.2021 09:24 7,8 C 7,8 C 5,6 C 82 % 1027,0 hPa 0,0 l/m 0 min 0 min 121 W/m 19,3 km/h (3 Bft) 95,74 %
28.03.2021 09:26 7,9 C 8,3 C 5,6 C 82 % 1027,1 hPa 0,0 l/m 0 min 0 min 123 W/m 12,9 km/h (3 Bft) 97,92 %
28.03.2021 09:28 8,0 C 8,3 C 5,6 C 82 % 1027,1 hPa 0,0 l/m 0 min 0 min 119 W/m 12,9 km/h (3 Bft) 97,87 %
28.03.2021 09:30 8,1 C 8,3 C 5,6 C 82 % 1027,0 hPa 0,0 l/m 0 min 0 min 127 W/m 12,9 km/h (3 Bft) 97,83 %
28.03.2021 09:32 8,1 C 8,3 C 6,1 C 81 % 1027,1 hPa 0,0 l/m 0 min 0 min 129 W/m 19,3 km/h (3 Bft) 100,00 %
28.03.2021 09:34 8,2 C 8,3 C 6,1 C 81 % 1027,1 hPa 0,0 l/m 0 min 0 min 135 W/m 9,7 km/h (2 Bft) 100,00 %
28.03.2021 09:36 8,3 C 8,9 C 6,1 C 81 % 1027,1 hPa 0,0 l/m 0 min 0 min 129 W/m 12,9 km/h (3 Bft) 100,00 %
28.03.2021 09:38 8,4 C 8,9 C 6,1 C 81 % 1027,0 hPa 0,0 l/m 0 min 0 min 114 W/m 12,9 km/h (3 Bft) 100,00 %
28.03.2021 09:40 8,4 C 8,9 C 6,1 C 81 % 1027,1 hPa 0,0 l/m 0 min 0 min 122 W/m 9,7 km/h (2 Bft) 100,00 %
28.03.2021 09:42 8,5 C 8,9 C 6,1 C 81 % 1027,0 hPa 0,0 l/m 0 min 0 min 119 W/m 12,9 km/h (3 Bft) 100,00 %
28.03.2021 09:44 8,5 C 8,9 C 6,1 C 81 % 1027,1 hPa 0,0 l/m 0 min 0 min 125 W/m 16,1 km/h (3 Bft) 100,00 %
28.03.2021 09:46 8,5 C 8,9 C 6,1 C 81 % 1027,2 hPa 0,0 l/m 0 min 0 min 155 W/m 12,9 km/h (3 Bft) 100,00 %
28.03.2021 09:48 8,6 C 9,4 C 6,7 C 80 % 1027,2 hPa 0,0 l/m 2 min 0 min 185 W/m 9,7 km/h (2 Bft) 100,00 %
28.03.2021 09:50 8,7 C 9,4 C 6,7 C 80 % 1027,2 hPa 0,0 l/m 2 min 0 min 209 W/m 16,1 km/h (3 Bft) 100,00 %
28.03.2021 09:52 8,8 C 9,4 C 7,3 C 80 % 1027,2 hPa 0,0 l/m 2 min 0 min 206 W/m 19,3 km/h (3 Bft) 97,87 %
28.03.2021 09:54 8,9 C 9,4 C 7,3 C 80 % 1027,3 hPa 0,0 l/m 2 min 0 min 203 W/m 16,1 km/h (3 Bft) 100,00 %
28.03.2021 09:56 8,9 C 10,0 C 7,3 C 80 % 1027,4 hPa 0,0 l/m 2 min 0 min 217 W/m 12,9 km/h (3 Bft) 100,00 %
28.03.2021 09:58 9,0 C 10,0 C 7,8 C 79 % 1027,4 hPa 0,0 l/m 2 min 0 min 257 W/m 12,9 km/h (3 Bft) 100,00 %
28.03.2021 10:00 9,1 C 10,6 C 7,8 C 79 % 1027,3 hPa 0,0 l/m 2 min 0 min 271 W/m 6,4 km/h (2 Bft) 100,00 %
28.03.2021 10:02 9,3 C 10,6 C 8,4 C 79 % 1027,3 hPa 0,0 l/m 2 min 0 min 255 W/m 16,1 km/h (3 Bft) 100,00 %
28.03.2021 10:04 9,4 C 10,6 C 8,4 C 79 % 1027,3 hPa 0,0 l/m 2 min 0 min 233 W/m 19,3 km/h (3 Bft) 100,00 %
28.03.2021 10:06 9,5 C 10,6 C 8,4 C 78 % 1027,3 hPa 0,0 l/m 0 min 0 min 203 W/m 16,1 km/h (3 Bft) 100,00 %
28.03.2021 10:08 9,5 C 11,1 C 8,4 C 78 % 1027,3 hPa 0,0 l/m 2 min 0 min 213 W/m 12,9 km/h (3 Bft) 100,00 %
28.03.2021 10:10 9,7 C 11,7 C 9,5 C 78 % 1027,4 hPa 0,0 l/m 2 min 0 min 290 W/m 16,1 km/h (3 Bft) 97,87 %
28.03.2021 10:12 9,8 C 12,2 C 10,0 C 78 % 1027,3 hPa 0,0 l/m 2 min 0 min 312 W/m 16,1 km/h (3 Bft) 100,00 %
28.03.2021 10:14 9,9 C 11,7 C 9,5 C 78 % 1027,4 hPa 0,0 l/m 2 min 0 min 260 W/m 29,0 km/h (5 Bft) 100,00 %
28.03.2021 10:16 10,0 C 12,2 C 10,6 C 77 % 1027,4 hPa 0,0 l/m 2 min 0 min 323 W/m 35,4 km/h (5 Bft) 100,00 %
28.03.2021 10:18 10,1 C 13,3 C 11,1 C 77 % 1027,3 hPa 0,0 l/m 2 min 0 min 398 W/m 22,5 km/h (4 Bft) 97,87 %
28.03.2021 10:20 10,4 C 13,9 C 11,1 C 77 % 1027,3 hPa 0,0 l/m 2 min 0 min 504 W/m 16,1 km/h (3 Bft) 97,87 %
28.03.2021 10:22 10,5 C 14,4 C 11,1 C 76 % 1027,4 hPa 0,0 l/m 2 min 0 min 487 W/m 16,1 km/h (3 Bft) 100,00 %
28.03.2021 10:24 10,8 C 15,0 C 11,1 C 76 % 1027,4 hPa 0,0 l/m 2 min 0 min 448 W/m 12,9 km/h (3 Bft) 97,87 %
28.03.2021 10:26 11,0 C 15,0 C 11,1 C 76 % 1027,3 hPa 0,0 l/m 2 min 0 min 480 W/m 29,0 km/h (5 Bft) 97,87 %
28.03.2021 10:28 11,1 C 14,4 C 12,3 C 75 % 1027,3 hPa 0,0 l/m 2 min 0 min 405 W/m 22,5 km/h (4 Bft) 100,00 %
28.03.2021 10:30 11,3 C 15,0 C 12,8 C 75 % 1027,3 hPa 0,0 l/m 2 min 0 min 381 W/m 12,9 km/h (3 Bft) 100,00 %
28.03.2021 10:32 11,4 C 15,0 C 12,3 C 74 % 1027,3 hPa 0,0 l/m 2 min 0 min 466 W/m 19,3 km/h (3 Bft) 100,00 %
28.03.2021 10:34 11,6 C 15,0 C 12,3 C 73 % 1027,4 hPa 0,0 l/m 2 min 0 min 486 W/m 19,3 km/h (3 Bft) 100,00 %
28.03.2021 10:36 11,7 C 14,4 C 11,7 C 72 % 1027,4 hPa 0,0 l/m 2 min 0 min 462 W/m 29,0 km/h (5 Bft) 97,87 %
28.03.2021 10:38 11,8 C 14,4 C 11,7 C 72 % 1027,5 hPa 0,0 l/m 2 min 0 min 462 W/m 19,3 km/h (3 Bft) 97,87 %
28.03.2021 10:40 11,8 C 13,9 C 11,1 C 72 % 1027,4 hPa 0,0 l/m 2 min 0 min 309 W/m 25,7 km/h (4 Bft) 97,83 %
28.03.2021 10:42 11,9 C 13,9 C 11,7 C 72 % 1027,3 hPa 0,0 l/m 2 min 0 min 282 W/m 22,5 km/h (4 Bft) 97,87 %
28.03.2021 10:44 11,9 C 13,9 C 11,7 C 71 % 1027,3 hPa 0,0 l/m 2 min 0 min 321 W/m 38,6 km/h (5 Bft) 97,87 %
28.03.2021 10:46 11,9 C 13,3 C 12,3 C 71 % 1027,4 hPa 0,0 l/m 2 min 0 min 298 W/m 32,2 km/h (5 Bft) 97,87 %
28.03.2021 10:48 11,9 C 13,9 C 12,8 C 71 % 1027,5 hPa 0,0 l/m 2 min 0 min 335 W/m 16,1 km/h (3 Bft) 97,83 %
28.03.2021 10:50 12,0 C 13,9 C 12,8 C 70 % 1027,5 hPa 0,0 l/m 2 min 0 min 385 W/m 29,0 km/h (5 Bft) 97,87 %
28.03.2021 10:52 12,0 C 13,9 C 12,8 C 70 % 1027,3 hPa 0,0 l/m 2 min 0 min 426 W/m 25,7 km/h (4 Bft) 95,65 %
28.03.2021 10:54 12,0 C 13,9 C 13,4 C 70 % 1027,3 hPa 0,0 l/m 2 min 0 min 402 W/m 19,3 km/h (3 Bft) 93,62 %
28.03.2021 10:56 12,1 C 13,3 C 12,8 C 70 % 1027,3 hPa 0,0 l/m 2 min 0 min 404 W/m 38,6 km/h (5 Bft) 97,87 %
28.03.2021 10:58 12,1 C 13,9 C 12,8 C 70 % 1027,2 hPa 0,0 l/m 2 min 0 min 310 W/m 25,7 km/h (4 Bft) 97,87 %
28.03.2021 11:00 12,1 C 13,3 C 12,3 C 69 % 1027,3 hPa 0,0 l/m 2 min 0 min 346 W/m 22,5 km/h (4 Bft) 97,87 %
28.03.2021 11:02 12,2 C 13,9 C 12,3 C 70 % 1027,3 hPa 0,0 l/m 2 min 0 min 290 W/m 25,7 km/h (4 Bft) 97,87 %
28.03.2021 11:04 12,2 C 13,9 C 11,7 C 69 % 1027,3 hPa 0,0 l/m 2 min 0 min 447 W/m 45,1 km/h (6 Bft) 97,87 %
28.03.2021 11:06 12,3 C 13,9 C 11,7 C 69 % 1027,3 hPa 0,0 l/m 2 min 0 min 412 W/m 19,3 km/h (3 Bft) 97,83 %
28.03.2021 11:08 12,4 C 13,9 C 11,7 C 69 % 1027,3 hPa 0,0 l/m 2 min 0 min 367 W/m 25,7 km/h (4 Bft) 98,00 %
28.03.2021 11:10 12,4 C 13,3 C 11,1 C 68 % 1027,8 hPa 0,0 l/m 2 min 0 min 339 W/m 38,6 km/h (5 Bft) 93,62 %
28.03.2021 11:12 12,3 C 13,3 C 11,7 C 68 % 1027,2 hPa 0,0 l/m 2 min 0 min 327 W/m 45,1 km/h (6 Bft) 97,87 %
28.03.2021 11:14 12,3 C 13,3 C 12,3 C 68 % 1027,5 hPa 0,0 l/m 2 min 0 min 522 W/m 41,8 km/h (6 Bft) 95,74 %
28.03.2021 11:16 12,3 C 13,9 C 12,8 C 68 % 1027,3 hPa 0,0 l/m 2 min 0 min 553 W/m 29,0 km/h (5 Bft) 97,83 %
28.03.2021 11:18 12,3 C 13,9 C 13,4 C 68 % 1027,3 hPa 0,0 l/m 2 min 0 min 582 W/m 25,7 km/h (4 Bft) 97,87 %
28.03.2021 11:20 12,4 C 13,9 C 13,4 C 67 % 1027,4 hPa 0,0 l/m 2 min 0 min 582 W/m 38,6 km/h (5 Bft) 97,87 %
28.03.2021 11:22 12,3 C 13,9 C 13,9 C 67 % 1027,4 hPa 0,0 l/m 2 min 0 min 571 W/m 35,4 km/h (5 Bft) 100,00 %
28.03.2021 11:24 12,3 C 13,9 C 13,9 C 66 % 1027,4 hPa 0,0 l/m 2 min 0 min 599 W/m 48,3 km/h (6 Bft) 100,00 %
28.03.2021 11:26 12,3 C 13,9 C 14,5 C 68 % 1027,4 hPa 0,0 l/m 2 min 0 min 555 W/m 22,5 km/h (4 Bft) 97,87 %
28.03.2021 11:28 12,4 C 14,4 C 15,0 C 68 % 1027,3 hPa 0,0 l/m 2 min 0 min 497 W/m 19,3 km/h (3 Bft) 100,00 %
28.03.2021 11:30 12,5 C 13,9 C 15,6 C 68 % 1027,3 hPa 0,0 l/m 2 min 0 min 509 W/m 38,6 km/h (5 Bft) 97,87 %
28.03.2021 11:32 12,5 C 13,9 C 15,6 C 67 % 1027,3 hPa 0,0 l/m 2 min 0 min 601 W/m 41,8 km/h (6 Bft) 97,22 %
28.03.2021 11:34 12,5 C 14,4 C 16,1 C 68 % 1027,3 hPa 0,0 l/m 2 min 0 min 399 W/m 32,2 km/h (5 Bft) 100,00 %
28.03.2021 11:36 12,6 C 14,4 C 16,1 C 67 % 1027,2 hPa 0,0 l/m 2 min 0 min 434 W/m 48,3 km/h (6 Bft) 100,00 %
28.03.2021 11:38 12,6 C 13,9 C 16,1 C 65 % 1027,4 hPa 0,0 l/m 2 min 0 min 589 W/m 45,1 km/h (6 Bft) 100,00 %
28.03.2021 11:40 12,5 C 14,4 C 16,1 C 65 % 1027,2 hPa 0,0 l/m 2 min 0 min 639 W/m 41,8 km/h (6 Bft) 100,00 %
28.03.2021 11:42 12,5 C 13,9 C 15,6 C 65 % 1027,2 hPa 0,0 l/m 2 min 0 min 603 W/m 41,8 km/h (6 Bft) 97,83 %
28.03.2021 11:44 12,5 C 14,4 C 16,1 C 65 % 1027,2 hPa 0,0 l/m 2 min 0 min 588 W/m 35,4 km/h (5 Bft) 100,00 %
28.03.2021 11:46 12,6 C 15,0 C 17,3 C 67 % 1027,1 hPa 0,0 l/m 2 min 0 min 627 W/m 22,5 km/h (4 Bft) 97,87 %
28.03.2021 11:48 12,7 C 15,6 C 17,8 C 66 % 1027,1 hPa 0,0 l/m 2 min 0 min 664 W/m 29,0 km/h (5 Bft) 100,00 %
28.03.2021 11:50 12,8 C 14,4 C 16,7 C 65 % 1027,0 hPa 0,0 l/m 2 min 0 min 701 W/m 32,2 km/h (5 Bft) 98,21 %
28.03.2021 11:52 12,8 C 15,6 C 17,8 C 65 % 1027,0 hPa 0,0 l/m 2 min 0 min 695 W/m 19,3 km/h (3 Bft) 97,83 %
28.03.2021 11:54 12,9 C 15,6 C 18,4 C 65 % 1026,9 hPa 0,0 l/m 2 min 0 min 683 W/m 19,3 km/h (3 Bft) 100,00 %
28.03.2021 11:56 13,0 C 16,1 C 18,9 C 65 % 1027,0 hPa 0,0 l/m 2 min 0 min 699 W/m 22,5 km/h (4 Bft) 100,00 %
28.03.2021 11:58 13,1 C 16,1 C 17,8 C 65 % 1026,9 hPa 0,0 l/m 2 min 0 min 699 W/m 29,0 km/h (5 Bft) 100,00 %
28.03.2021 12:00 13,1 C 16,1 C 17,8 C 64 % 1026,9 hPa 0,0 l/m 2 min 0 min 723 W/m 16,1 km/h (3 Bft) 97,87 %
28.03.2021 12:02 13,3 C 16,1 C 18,9 C 64 % 1026,9 hPa 0,0 l/m 2 min 0 min 725 W/m 25,7 km/h (4 Bft) 95,74 %
28.03.2021 12:04 13,4 C 16,1 C 19,5 C 63 % 1026,9 hPa 0,0 l/m 2 min 0 min 714 W/m 29,0 km/h (5 Bft) 97,83 %
28.03.2021 12:08 13,4 C 16,1 C 18,9 C 62 % 1026,9 hPa 0,0 l/m 4 min 0 min 733 W/m 45,1 km/h (6 Bft) 97,89 %
28.03.2021 12:10 13,4 C 16,7 C 18,9 C 62 % 1026,9 hPa 0,0 l/m 2 min 0 min 744 W/m 41,8 km/h (6 Bft) 93,62 %
28.03.2021 12:12 13,5 C 16,7 C 18,9 C 63 % 1026,8 hPa 0,0 l/m 2 min 0 min 774 W/m 22,5 km/h (4 Bft) 95,74 %
28.03.2021 12:14 13,6 C 16,7 C 18,9 C 61 % 1027,1 hPa 0,0 l/m 2 min 0 min 789 W/m 38,6 km/h (5 Bft) 97,83 %
28.03.2021 12:16 13,6 C 16,1 C 18,9 C 61 % 1026,9 hPa 0,0 l/m 2 min 0 min 809 W/m 45,1 km/h (6 Bft) 95,74 %
28.03.2021 12:18 13,6 C 16,7 C 18,9 C 61 % 1026,9 hPa 0,0 l/m 2 min 0 min 821 W/m 32,2 km/h (5 Bft) 95,74 %
28.03.2021 12:20 13,7 C 16,7 C 17,8 C 62 % 1026,9 hPa 0,0 l/m 2 min 0 min 821 W/m 19,3 km/h (3 Bft) 95,74 %
28.03.2021 12:22 13,7 C 16,1 C 16,1 C 61 % 1027,1 hPa 0,0 l/m 2 min 0 min 732 W/m 35,4 km/h (5 Bft) 95,74 %
28.03.2021 12:24 13,6 C 15,0 C 14,5 C 61 % 1027,0 hPa 0,0 l/m 0 min 0 min 229 W/m 29,0 km/h (5 Bft) 95,74 %
28.03.2021 12:26 13,4 C 14,4 C 14,5 C 61 % 1027,0 hPa 0,0 l/m 0 min 0 min 260 W/m 35,4 km/h (5 Bft) 95,65 %
28.03.2021 12:28 13,3 C 14,4 C 13,9 C 62 % 1027,0 hPa 0,0 l/m 0 min 0 min 260 W/m 22,5 km/h (4 Bft) 97,87 %
28.03.2021 12:30 13,3 C 15,0 C 15,0 C 63 % 1027,0 hPa 0,0 l/m 2 min 0 min 551 W/m 29,0 km/h (5 Bft) 93,62 %
28.03.2021 12:32 13,3 C 15,0 C 15,0 C 63 % 1027,0 hPa 0,0 l/m 2 min 0 min 429 W/m 29,0 km/h (5 Bft) 95,83 %
28.03.2021 12:34 13,4 C 16,1 C 16,1 C 63 % 1027,1 hPa 0,0 l/m 2 min 0 min 438 W/m 32,2 km/h (5 Bft) 95,74 %
28.03.2021 12:36 13,4 C 16,1 C 16,1 C 61 % 1027,1 hPa 0,0 l/m 2 min 0 min 422 W/m 45,1 km/h (6 Bft) 93,62 %
28.03.2021 12:38 13,5 C 16,7 C 16,7 C 62 % 1027,2 hPa 0,0 l/m 2 min 0 min 387 W/m 22,5 km/h (4 Bft) 93,48 %
28.03.2021 12:40 13,6 C 17,2 C 17,3 C 63 % 1027,2 hPa 0,0 l/m 2 min 0 min 387 W/m 19,3 km/h (3 Bft) 94,59 %
28.03.2021 12:42 13,8 C 17,2 C 17,3 C 63 % 1027,1 hPa 0,0 l/m 2 min 0 min 688 W/m 16,1 km/h (3 Bft) 95,65 %
28.03.2021 12:44 13,9 C 16,7 C 16,7 C 63 % 1027,1 hPa 0,0 l/m 2 min 0 min 757 W/m 29,0 km/h (5 Bft) 93,62 %
28.03.2021 12:46 14,0 C 17,2 C 17,3 C 62 % 1027,1 hPa 0,0 l/m 2 min 0 min 722 W/m 19,3 km/h (3 Bft) 95,74 %
28.03.2021 12:48 14,0 C 16,7 C 16,7 C 61 % 1027,2 hPa 0,0 l/m 2 min 0 min 690 W/m 25,7 km/h (4 Bft) 93,62 %
28.03.2021 12:50 14,0 C 16,1 C 15,6 C 61 % 1027,0 hPa 0,0 l/m 2 min 0 min 565 W/m 32,2 km/h (5 Bft) 95,74 %
28.03.2021 12:52 13,9 C 15,6 C 15,0 C 61 % 1027,0 hPa 0,0 l/m 2 min 0 min 571 W/m 48,3 km/h (6 Bft) 95,92 %
28.03.2021 12:54 13,8 C 15,6 C 15,0 C 61 % 1027,0 hPa 0,0 l/m 2 min 0 min 581 W/m 29,0 km/h (5 Bft) 95,65 %
28.03.2021 12:56 13,7 C 15,0 C 14,5 C 61 % 1027,1 hPa 0,0 l/m 2 min 0 min 541 W/m 45,1 km/h (6 Bft) 95,74 %
28.03.2021 12:58 13,6 C 15,0 C 14,5 C 61 % 1027,0 hPa 0,0 l/m 2 min 0 min 540 W/m 35,4 km/h (5 Bft) 91,49 %
28.03.2021 13:00 13,6 C 15,6 C 14,5 C 62 % 1027,0 hPa 0,0 l/m 2 min 0 min 587 W/m 35,4 km/h (5 Bft) 95,74 %
28.03.2021 13:02 13,6 C 15,6 C 14,5 C 62 % 1027,1 hPa 0,0 l/m 2 min 0 min 628 W/m 41,8 km/h (6 Bft) 95,74 %
28.03.2021 13:04 13,6 C 15,6 C 13,9 C 61 % 1027,0 hPa 0,0 l/m 2 min 0 min 514 W/m 45,1 km/h (6 Bft) 97,87 %
28.03.2021 13:06 13,8 C 16,7 C 15,0 C 62 % 1027,0 hPa 0,0 l/m 2 min 0 min 729 W/m 12,9 km/h (3 Bft) 97,83 %
28.03.2021 13:08 13,9 C 16,7 C 14,5 C 62 % 1027,0 hPa 0,0 l/m 2 min 0 min 730 W/m 25,7 km/h (4 Bft) 97,87 %
28.03.2021 13:10 13,9 C 16,7 C 13,9 C 62 % 1027,0 hPa 0,0 l/m 2 min 0 min 550 W/m 25,7 km/h (4 Bft) 97,87 %
28.03.2021 13:12 14,0 C 16,7 C 13,9 C 62 % 1027,0 hPa 0,0 l/m 2 min 0 min 459 W/m 32,2 km/h (5 Bft) 98,00 %
28.03.2021 13:14 14,0 C 16,1 C 13,9 C 62 % 1027,0 hPa 0,0 l/m 2 min 0 min 553 W/m 25,7 km/h (4 Bft) 95,74 %
28.03.2021 13:16 14,0 C 15,6 C 13,4 C 62 % 1027,0 hPa 0,0 l/m 2 min 0 min 484 W/m 29,0 km/h (5 Bft) 93,62 %
28.03.2021 13:18 14,0 C 15,6 C 13,4 C 61 % 1027,0 hPa 0,0 l/m 2 min 0 min 465 W/m 22,5 km/h (4 Bft) 93,48 %
28.03.2021 13:20 14,0 C 16,1 C 13,9 C 61 % 1026,9 hPa 0,0 l/m 2 min 0 min 522 W/m 25,7 km/h (4 Bft) 95,74 %
28.03.2021 13:22 14,0 C 15,6 C 13,4 C 60 % 1027,0 hPa 0,0 l/m 2 min 0 min 605 W/m 54,7 km/h (7 Bft) 95,74 %
28.03.2021 13:24 14,0 C 15,6 C 13,4 C 59 % 1026,9 hPa 0,0 l/m 2 min 0 min 593 W/m 48,3 km/h (6 Bft) 95,74 %
28.03.2021 13:26 13,9 C 16,1 C 13,9 C 59 % 1026,9 hPa 0,0 l/m 2 min 0 min 624 W/m 29,0 km/h (5 Bft) 95,74 %
28.03.2021 13:28 13,9 C 16,1 C 13,9 C 59 % 1026,9 hPa 0,0 l/m 2 min 0 min 653 W/m 48,3 km/h (6 Bft) 95,74 %
28.03.2021 13:30 14,0 C 16,7 C 13,9 C 58 % 1026,9 hPa 0,0 l/m 2 min 0 min 697 W/m 32,2 km/h (5 Bft) 93,48 %
28.03.2021 13:32 14,1 C 16,7 C 13,9 C 59 % 1027,0 hPa 0,0 l/m 2 min 0 min 699 W/m 48,3 km/h (6 Bft) 95,74 %
28.03.2021 13:34 14,2 C 16,7 C 13,9 C 58 % 1026,8 hPa 0,0 l/m 2 min 0 min 647 W/m 35,4 km/h (5 Bft) 95,74 %
28.03.2021 13:36 14,2 C 16,7 C 13,9 C 58 % 1027,0 hPa 0,0 l/m 2 min 0 min 585 W/m 35,4 km/h (5 Bft) 95,74 %
28.03.2021 13:38 14,2 C 16,7 C 14,5 C 58 % 1026,9 hPa 0,0 l/m 2 min 0 min 683 W/m 41,8 km/h (6 Bft) 93,62 %
28.03.2021 13:40 14,2 C 17,2 C 14,5 C 59 % 1026,9 hPa 0,0 l/m 2 min 0 min 668 W/m 22,5 km/h (4 Bft) 95,74 %
28.03.2021 13:42 14,2 C 16,1 C 13,9 C 57 % 1027,0 hPa 0,0 l/m 2 min 0 min 506 W/m 35,4 km/h (5 Bft) 95,65 %
28.03.2021 13:44 14,2 C 15,6 C 13,4 C 57 % 1027,1 hPa 0,0 l/m 2 min 0 min 461 W/m 45,1 km/h (6 Bft) 95,74 %
28.03.2021 13:46 14,0 C 15,0 C 12,8 C 57 % 1027,0 hPa 0,0 l/m 2 min 0 min 584 W/m 38,6 km/h (5 Bft) 95,24 %
28.03.2021 13:48 14,0 C 16,1 C 12,8 C 59 % 1027,0 hPa 0,0 l/m 2 min 0 min 619 W/m 41,8 km/h (6 Bft) 95,74 %
28.03.2021 13:50 14,2 C 16,1 C 12,8 C 59 % 1027,1 hPa 0,0 l/m 2 min 0 min 594 W/m 25,7 km/h (4 Bft) 95,74 %
28.03.2021 13:52 14,2 C 16,1 C 12,8 C 59 % 1027,1 hPa 0,0 l/m 2 min 0 min 519 W/m 25,7 km/h (4 Bft) 97,83 %
28.03.2021 13:54 14,2 C 16,1 C 12,8 C 59 % 1027,0 hPa 0,0 l/m 2 min 0 min 394 W/m 22,5 km/h (4 Bft) 98,08 %
28.03.2021 13:56 14,2 C 16,1 C 12,8 C 60 % 1027,1 hPa 0,0 l/m 2 min 0 min 445 W/m 22,5 km/h (4 Bft) 97,87 %
28.03.2021 13:58 14,2 C 16,1 C 12,8 C 59 % 1027,0 hPa 0,0 l/m 2 min 0 min 420 W/m 22,5 km/h (4 Bft) 97,87 %
28.03.2021 14:00 14,3 C 16,1 C 12,8 C 58 % 1027,1 hPa 0,0 l/m 2 min 0 min 453 W/m 25,7 km/h (4 Bft) 97,87 %
28.03.2021 14:02 14,4 C 16,1 C 12,8 C 58 % 1027,1 hPa 0,0 l/m 2 min 0 min 471 W/m 29,0 km/h (5 Bft) 100,00 %
28.03.2021 14:04 14,4 C 16,7 C 12,8 C 58 % 1027,0 hPa 0,0 l/m 2 min 0 min 509 W/m 19,3 km/h (3 Bft) 100,00 %
28.03.2021 14:06 14,4 C 16,1 C 12,8 C 58 % 1027,1 hPa 0,0 l/m 2 min 0 min 493 W/m 29,0 km/h (5 Bft) 100,00 %
28.03.2021 14:08 14,4 C 16,1 C 12,8 C 58 % 1027,0 hPa 0,0 l/m 2 min 0 min 497 W/m 41,8 km/h (6 Bft) 97,87 %
28.03.2021 14:10 14,4 C 16,1 C 12,8 C 58 % 1027,0 hPa 0,0 l/m 2 min 0 min 548 W/m 38,6 km/h (5 Bft) 100,00 %
28.03.2021 14:12 14,5 C 16,7 C 12,8 C 59 % 1026,9 hPa 0,0 l/m 2 min 0 min 516 W/m 16,1 km/h (3 Bft) 97,87 %
28.03.2021 14:14 14,6 C 16,7 C 12,8 C 58 % 1027,0 hPa 0,0 l/m 2 min 0 min 519 W/m 32,2 km/h (5 Bft) 100,00 %
28.03.2021 14:16 14,6 C 16,7 C 13,4 C 57 % 1026,9 hPa 0,0 l/m 2 min 0 min 527 W/m 38,6 km/h (5 Bft) 100,00 %
28.03.2021 14:18 14,7 C 16,7 C 13,4 C 56 % 1026,9 hPa 0,0 l/m 2 min 0 min 493 W/m 22,5 km/h (4 Bft) 100,00 %
28.03.2021 14:20 14,6 C 16,1 C 12,8 C 55 % 1026,8 hPa 0,0 l/m 2 min 0 min 414 W/m 32,2 km/h (5 Bft) 100,00 %
28.03.2021 14:22 14,5 C 16,1 C 12,8 C 55 % 1026,8 hPa 0,0 l/m 2 min 0 min 538 W/m 35,4 km/h (5 Bft) 100,00 %
28.03.2021 14:24 14,5 C 16,1 C 12,8 C 56 % 1026,8 hPa 0,0 l/m 2 min 0 min 497 W/m 25,7 km/h (4 Bft) 100,00 %
28.03.2021 14:26 14,5 C 15,6 C 12,8 C 55 % 1026,8 hPa 0,0 l/m 2 min 0 min 479 W/m 35,4 km/h (5 Bft) 100,00 %
28.03.2021 14:28 14,3 C 15,6 C 12,3 C 55 % 1026,8 hPa 0,0 l/m 2 min 0 min 461 W/m 54,7 km/h (7 Bft) 100,00 %
28.03.2021 14:30 14,2 C 15,6 C 12,3 C 56 % 1026,9 hPa 0,0 l/m 2 min 0 min 482 W/m 29,0 km/h (5 Bft) 95,74 %
28.03.2021 14:32 14,2 C 15,6 C 12,3 C 56 % 1026,8 hPa 0,0 l/m 2 min 0 min 461 W/m 38,6 km/h (5 Bft) 100,00 %
28.03.2021 14:34 14,3 C 15,6 C 12,8 C 57 % 1026,8 hPa 0,0 l/m 2 min 0 min 405 W/m 38,6 km/h (5 Bft) 100,00 %
28.03.2021 14:36 14,3 C 15,6 C 12,3 C 56 % 1026,7 hPa 0,0 l/m 2 min 0 min 379 W/m 35,4 km/h (5 Bft) 100,00 %
28.03.2021 14:38 14,3 C 15,0 C 12,3 C 56 % 1026,8 hPa 0,0 l/m 2 min 0 min 363 W/m 25,7 km/h (4 Bft) 100,00 %
28.03.2021 14:40 14,2 C 15,0 C 12,3 C 55 % 1026,7 hPa 0,0 l/m 2 min 0 min 372 W/m 38,6 km/h (5 Bft) 100,00 %
28.03.2021 14:42 14,2 C 15,0 C 12,3 C 56 % 1026,6 hPa 0,0 l/m 2 min 0 min 366 W/m 32,2 km/h (5 Bft) 100,00 %
28.03.2021 14:44 14,2 C 15,0 C 12,3 C 56 % 1026,6 hPa 0,0 l/m 2 min 0 min 347 W/m 32,2 km/h (5 Bft) 100,00 %
28.03.2021 14:46 14,2 C 14,4 C 12,3 C 55 % 1026,7 hPa 0,0 l/m 2 min 0 min 325 W/m 35,4 km/h (5 Bft) 100,00 %
28.03.2021 14:48 14,2 C 15,0 C 12,3 C 56 % 1026,7 hPa 0,0 l/m 2 min 0 min 344 W/m 32,2 km/h (5 Bft) 100,00 %
28.03.2021 14:50 14,2 C 15,0 C 12,3 C 56 % 1026,7 hPa 0,0 l/m 2 min 0 min 357 W/m 32,2 km/h (5 Bft) 100,00 %
28.03.2021 14:52 14,2 C 15,0 C 12,3 C 56 % 1026,8 hPa 0,0 l/m 2 min 0 min 368 W/m 22,5 km/h (4 Bft) 100,00 %
28.03.2021 14:54 14,2 C 14,4 C 11,7 C 55 % 1026,9 hPa 0,0 l/m 2 min 0 min 384 W/m 54,7 km/h (7 Bft) 100,00 %
28.03.2021 14:56 14,1 C 14,4 C 11,7 C 54 % 1026,9 hPa 0,0 l/m 2 min 0 min 388 W/m 48,3 km/h (6 Bft) 100,00 %
28.03.2021 14:58 14,1 C 14,4 C 11,7 C 55 % 1026,8 hPa 0,0 l/m 2 min 0 min 417 W/m 48,3 km/h (6 Bft) 100,00 %
28.03.2021 15:00 14,1 C 15,0 C 11,7 C 56 % 1026,8 hPa 0,0 l/m 2 min 0 min 358 W/m 29,0 km/h (5 Bft) 100,00 %
28.03.2021 15:02 14,1 C 15,0 C 11,7 C 56 % 1026,8 hPa 0,0 l/m 2 min 0 min 330 W/m 25,7 km/h (4 Bft) 100,00 %
28.03.2021 15:04 14,2 C 15,0 C 11,7 C 56 % 1026,8 hPa 0,0 l/m 2 min 0 min 335 W/m 25,7 km/h (4 Bft) 100,00 %
28.03.2021 15:06 14,1 C 15,0 C 11,7 C 56 % 1026,8 hPa 0,0 l/m 2 min 0 min 355 W/m 38,6 km/h (5 Bft) 95,74 %
28.03.2021 15:08 14,2 C 15,0 C 12,3 C 56 % 1026,6 hPa 0,0 l/m 2 min 0 min 356 W/m 22,5 km/h (4 Bft) 100,00 %
28.03.2021 15:10 14,2 C 15,0 C 12,3 C 57 % 1026,6 hPa 0,0 l/m 2 min 0 min 352 W/m 19,3 km/h (3 Bft) 100,00 %
28.03.2021 15:12 14,2 C 15,0 C 12,3 C 56 % 1026,6 hPa 0,0 l/m 2 min 0 min 353 W/m 48,3 km/h (6 Bft) 100,00 %
28.03.2021 15:14 14,2 C 15,0 C 12,3 C 57 % 1026,6 hPa 0,0 l/m 2 min 0 min 359 W/m 16,1 km/h (3 Bft) 100,00 %
28.03.2021 15:16 14,2 C 15,0 C 12,3 C 56 % 1026,5 hPa 0,0 l/m 2 min 0 min 381 W/m 32,2 km/h (5 Bft) 100,00 %
28.03.2021 15:18 14,2 C 15,0 C 12,3 C 55 % 1026,5 hPa 0,0 l/m 2 min 0 min 383 W/m 35,4 km/h (5 Bft) 100,00 %
28.03.2021 15:20 14,2 C 15,0 C 12,3 C 55 % 1026,6 hPa 0,0 l/m 2 min 0 min 362 W/m 32,2 km/h (5 Bft) 97,87 %
28.03.2021 15:22 14,2 C 15,0 C 12,3 C 56 % 1026,5 hPa 0,0 l/m 2 min 0 min 341 W/m 25,7 km/h (4 Bft) 97,87 %
28.03.2021 15:24 14,2 C 15,0 C 12,3 C 56 % 1026,5 hPa 0,0 l/m 2 min 0 min 327 W/m 25,7 km/h (4 Bft) 100,00 %
28.03.2021 15:26 14,2 C 15,0 C 12,3 C 57 % 1026,5 hPa 0,0 l/m 2 min 0 min 310 W/m 25,7 km/h (4 Bft) 93,62 %
28.03.2021 15:28 14,2 C 14,4 C 12,3 C 56 % 1026,6 hPa 0,0 l/m 2 min 0 min 311 W/m 32,2 km/h (5 Bft) 91,30 %
28.03.2021 15:30 14,2 C 14,4 C 12,3 C 56 % 1026,6 hPa 0,0 l/m 2 min 0 min 308 W/m 25,7 km/h (4 Bft) 95,74 %
28.03.2021 15:32 14,2 C 15,0 C 12,3 C 56 % 1026,4 hPa 0,0 l/m 2 min 0 min 303 W/m 22,5 km/h (4 Bft) 100,00 %
28.03.2021 15:34 14,2 C 15,0 C 11,7 C 55 % 1026,5 hPa 0,0 l/m 2 min 0 min 311 W/m 22,5 km/h (4 Bft) 95,74 %
28.03.2021 15:36 14,2 C 15,0 C 12,3 C 56 % 1026,5 hPa 0,0 l/m 2 min 0 min 337 W/m 22,5 km/h (4 Bft) 97,87 %
28.03.2021 15:38 14,3 C 15,6 C 12,3 C 56 % 1026,4 hPa 0,0 l/m 2 min 0 min 334 W/m 16,1 km/h (3 Bft) 97,87 %
28.03.2021 15:40 14,3 C 15,6 C 12,3 C 56 % 1026,5 hPa 0,0 l/m 2 min 0 min 378 W/m 29,0 km/h (5 Bft) 95,65 %
28.03.2021 15:42 14,4 C 15,6 C 12,3 C 57 % 1026,4 hPa 0,0 l/m 2 min 0 min 359 W/m 16,1 km/h (3 Bft) 95,74 %
28.03.2021 15:44 14,5 C 15,6 C 12,3 C 56 % 1026,4 hPa 0,0 l/m 2 min 0 min 345 W/m 22,5 km/h (4 Bft) 97,87 %
28.03.2021 15:46 14,4 C 15,0 C 12,3 C 55 % 1026,5 hPa 0,0 l/m 2 min 0 min 332 W/m 35,4 km/h (5 Bft) 97,87 %
28.03.2021 15:48 14,4 C 15,0 C 12,3 C 55 % 1026,4 hPa 0,0 l/m 2 min 0 min 309 W/m 22,5 km/h (4 Bft) 97,87 %
28.03.2021 15:50 14,3 C 15,0 C 12,3 C 55 % 1026,4 hPa 0,0 l/m 2 min 0 min 290 W/m 22,5 km/h (4 Bft) 97,87 %
28.03.2021 15:52 14,3 C 15,0 C 11,7 C 55 % 1026,4 hPa 0,0 l/m 2 min 0 min 284 W/m 19,3 km/h (3 Bft) 97,83 %
28.03.2021 15:54 14,3 C 15,0 C 11,7 C 55 % 1026,4 hPa 0,0 l/m 2 min 0 min 287 W/m 16,1 km/h (3 Bft) 95,74 %
28.03.2021 15:56 14,3 C 14,4 C 11,7 C 55 % 1026,4 hPa 0,0 l/m 2 min 0 min 290 W/m 25,7 km/h (4 Bft) 93,62 %
28.03.2021 15:58 14,3 C 15,0 C 11,7 C 55 % 1026,4 hPa 0,0 l/m 2 min 0 min 282 W/m 12,9 km/h (3 Bft) 95,74 %
28.03.2021 16:00 14,3 C 14,4 C 11,7 C 56 % 1026,4 hPa 0,0 l/m 0 min 0 min 271 W/m 19,3 km/h (3 Bft) 95,74 %
28.03.2021 16:02 14,3 C 15,0 C 11,7 C 56 % 1026,4 hPa 0,0 l/m 2 min 0 min 272 W/m 16,1 km/h (3 Bft) 95,74 %
28.03.2021 16:04 14,3 C 15,0 C 11,7 C 56 % 1026,4 hPa 0,0 l/m 2 min 0 min 277 W/m 22,5 km/h (4 Bft) 93,48 %
28.03.2021 16:06 14,3 C 14,4 C 11,7 C 57 % 1026,4 hPa 0,0 l/m 2 min 0 min 271 W/m 32,2 km/h (5 Bft) 93,62 %
28.03.2021 16:08 14,2 C 14,4 C 11,7 C 57 % 1026,4 hPa 0,0 l/m 0 min 0 min 259 W/m 19,3 km/h (3 Bft) 91,49 %
28.03.2021 16:10 14,2 C 14,4 C 11,7 C 57 % 1026,4 hPa 0,0 l/m 0 min 0 min 241 W/m 29,0 km/h (5 Bft) 95,74 %
28.03.2021 16:12 14,2 C 14,4 C 11,7 C 57 % 1026,3 hPa 0,0 l/m 0 min 0 min 233 W/m 19,3 km/h (3 Bft) 93,62 %
28.03.2021 16:14 14,2 C 14,4 C 11,7 C 57 % 1026,3 hPa 0,0 l/m 0 min 0 min 228 W/m 19,3 km/h (3 Bft) 95,74 %
28.03.2021 16:16 14,2 C 14,4 C 11,7 C 57 % 1026,4 hPa 0,0 l/m 0 min 0 min 219 W/m 19,3 km/h (3 Bft) 95,65 %
28.03.2021 16:18 14,2 C 14,4 C 11,7 C 57 % 1026,4 hPa 0,0 l/m 0 min 0 min 215 W/m 16,1 km/h (3 Bft) 97,87 %
28.03.2021 16:20 14,2 C 14,4 C 11,7 C 57 % 1026,3 hPa 0,0 l/m 0 min 0 min 212 W/m 19,3 km/h (3 Bft) 94,29 %
28.03.2021 16:22 14,2 C 14,4 C 11,7 C 57 % 1026,4 hPa 0,0 l/m 0 min 0 min 206 W/m 16,1 km/h (3 Bft) 98,18 %
28.03.2021 16:24 14,2 C 13,9 C 11,7 C 57 % 1026,4 hPa 0,0 l/m 0 min 0 min 198 W/m 25,7 km/h (4 Bft) 95,74 %
28.03.2021 16:26 14,2 C 13,9 C 11,7 C 57 % 1026,4 hPa 0,0 l/m 0 min 0 min 180 W/m 16,1 km/h (3 Bft) 97,83 %
28.03.2021 16:28 14,1 C 13,9 C 11,7 C 57 % 1026,4 hPa 0,0 l/m 0 min 0 min 164 W/m 16,1 km/h (3 Bft) 95,74 %
28.03.2021 16:30 14,1 C 13,9 C 11,1 C 56 % 1026,5 hPa 0,0 l/m 0 min 0 min 148 W/m 29,0 km/h (5 Bft) 95,74 %
28.03.2021 16:32 14,1 C 13,9 C 11,1 C 56 % 1026,4 hPa 0,0 l/m 0 min 0 min 136 W/m 19,3 km/h (3 Bft) 93,62 %
28.03.2021 16:34 14,0 C 13,9 C 11,1 C 57 % 1026,4 hPa 0,0 l/m 0 min 0 min 130 W/m 12,9 km/h (3 Bft) 95,74 %
28.03.2021 16:36 14,0 C 13,9 C 11,1 C 57 % 1026,4 hPa 0,0 l/m 0 min 0 min 128 W/m 22,5 km/h (4 Bft) 94,00 %
28.03.2021 16:38 14,0 C 13,9 C 11,1 C 56 % 1026,3 hPa 0,0 l/m 0 min 0 min 126 W/m 35,4 km/h (5 Bft) 97,87 %
28.03.2021 16:40 13,9 C 13,3 C 11,1 C 56 % 1026,4 hPa 0,0 l/m 0 min 0 min 125 W/m 25,7 km/h (4 Bft) 97,87 %
28.03.2021 16:42 13,9 C 13,3 C 11,1 C 57 % 1026,3 hPa 0,0 l/m 0 min 0 min 124 W/m 16,1 km/h (3 Bft) 95,74 %
28.03.2021 16:44 13,9 C 13,3 C 11,1 C 57 % 1026,4 hPa 0,0 l/m 0 min 0 min 118 W/m 19,3 km/h (3 Bft) 97,87 %
28.03.2021 16:46 13,8 C 13,3 C 11,1 C 57 % 1026,4 hPa 0,0 l/m 0 min 0 min 110 W/m 35,4 km/h (5 Bft) 97,87 %
28.03.2021 16:48 13,8 C 13,3 C 10,6 C 57 % 1026,4 hPa 0,0 l/m 0 min 0 min 105 W/m 19,3 km/h (3 Bft) 97,83 %
28.03.2021 16:50 13,8 C 13,3 C 10,6 C 58 % 1026,4 hPa 0,0 l/m 0 min 0 min 104 W/m 22,5 km/h (4 Bft) 95,74 %
28.03.2021 16:52 13,8 C 13,3 C 10,6 C 58 % 1026,4 hPa 0,0 l/m 0 min 0 min 102 W/m 22,5 km/h (4 Bft) 97,87 %
28.03.2021 16:54 13,7 C 13,3 C 10,6 C 58 % 1026,4 hPa 0,0 l/m 0 min 0 min 103 W/m 19,3 km/h (3 Bft) 97,87 %
28.03.2021 16:56 13,7 C 13,3 C 10,6 C 58 % 1026,5 hPa 0,0 l/m 0 min 0 min 106 W/m 25,7 km/h (4 Bft) 97,87 %
28.03.2021 16:58 13,7 C 13,3 C 10,6 C 58 % 1026,4 hPa 0,0 l/m 0 min 0 min 111 W/m 19,3 km/h (3 Bft) 95,74 %
28.03.2021 17:00 13,7 C 13,3 C 10,6 C 58 % 1026,4 hPa 0,0 l/m 0 min 0 min 118 W/m 25,7 km/h (4 Bft) 97,78 %
28.03.2021 17:02 13,7 C 13,3 C 10,6 C 58 % 1026,4 hPa 0,0 l/m 0 min 0 min 108 W/m 16,1 km/h (3 Bft) 95,65 %
28.03.2021 17:04 13,6 C 13,3 C 10,6 C 58 % 1026,4 hPa 0,0 l/m 0 min 0 min 93 W/m 35,4 km/h (5 Bft) 97,87 %
28.03.2021 17:06 13,6 C 13,3 C 10,6 C 58 % 1026,4 hPa 0,0 l/m 0 min 0 min 92 W/m 29,0 km/h (5 Bft) 95,74 %
28.03.2021 17:08 13,6 C 13,3 C 10,6 C 58 % 1026,4 hPa 0,0 l/m 0 min 0 min 96 W/m 32,2 km/h (5 Bft) 95,74 %
28.03.2021 17:10 13,6 C 13,3 C 10,6 C 58 % 1026,4 hPa 0,0 l/m 0 min 0 min 99 W/m 19,3 km/h (3 Bft) 97,87 %
28.03.2021 17:12 13,6 C 13,3 C 10,6 C 58 % 1026,5 hPa 0,0 l/m 0 min 0 min 105 W/m 19,3 km/h (3 Bft) 97,83 %
28.03.2021 17:14 13,6 C 13,3 C 10,6 C 58 % 1026,5 hPa 0,0 l/m 0 min 0 min 113 W/m 25,7 km/h (4 Bft) 95,74 %
28.03.2021 17:16 13,6 C 13,3 C 10,6 C 58 % 1026,5 hPa 0,0 l/m 0 min 0 min 118 W/m 25,7 km/h (4 Bft) 97,87 %
28.03.2021 17:18 13,6 C 13,3 C 10,6 C 58 % 1026,4 hPa 0,0 l/m 0 min 0 min 126 W/m 22,5 km/h (4 Bft) 97,87 %
28.03.2021 17:20 13,6 C 13,3 C 10,6 C 59 % 1026,4 hPa 0,0 l/m 0 min 0 min 139 W/m 19,3 km/h (3 Bft) 100,00 %
28.03.2021 17:22 13,6 C 13,3 C 10,6 C 59 % 1026,3 hPa 0,0 l/m 0 min 0 min 147 W/m 19,3 km/h (3 Bft) 100,00 %
28.03.2021 17:24 13,7 C 13,3 C 10,6 C 59 % 1026,4 hPa 0,0 l/m 0 min 0 min 147 W/m 12,9 km/h (3 Bft) 100,00 %
28.03.2021 17:26 13,8 C 13,9 C 10,6 C 59 % 1026,5 hPa 0,0 l/m 0 min 0 min 146 W/m 22,5 km/h (4 Bft) 100,00 %
28.03.2021 17:28 13,8 C 13,9 C 11,1 C 59 % 1026,4 hPa 0,0 l/m 0 min 0 min 151 W/m 16,1 km/h (3 Bft) 100,00 %
28.03.2021 17:30 13,8 C 13,9 C 11,1 C 59 % 1026,4 hPa 0,0 l/m 0 min 0 min 165 W/m 16,1 km/h (3 Bft) 100,00 %
28.03.2021 17:32 13,8 C 13,9 C 11,1 C 59 % 1026,3 hPa 0,0 l/m 0 min 0 min 173 W/m 19,3 km/h (3 Bft) 100,00 %
28.03.2021 17:34 13,9 C 13,9 C 11,1 C 59 % 1026,4 hPa 0,0 l/m 0 min 0 min 172 W/m 12,9 km/h (3 Bft) 100,00 %
28.03.2021 17:36 13,9 C 14,4 C 11,1 C 59 % 1026,5 hPa 0,0 l/m 0 min 0 min 178 W/m 9,7 km/h (2 Bft) 100,00 %
28.03.2021 17:38 13,9 C 14,4 C 11,1 C 59 % 1026,4 hPa 0,0 l/m 0 min 0 min 161 W/m 22,5 km/h (4 Bft) 100,00 %
28.03.2021 17:40 13,9 C 13,9 C 11,1 C 58 % 1026,5 hPa 0,0 l/m 0 min 0 min 141 W/m 16,1 km/h (3 Bft) 100,00 %
28.03.2021 17:42 13,9 C 13,9 C 11,1 C 59 % 1026,5 hPa 0,0 l/m 0 min 0 min 135 W/m 16,1 km/h (3 Bft) 100,00 %
28.03.2021 17:44 14,0 C 13,9 C 11,1 C 59 % 1026,4 hPa 0,0 l/m 0 min 0 min 133 W/m 19,3 km/h (3 Bft) 100,00 %
28.03.2021 17:46 14,0 C 13,9 C 11,1 C 59 % 1026,4 hPa 0,0 l/m 0 min 0 min 131 W/m 16,1 km/h (3 Bft) 100,00 %
28.03.2021 17:48 14,0 C 13,9 C 11,1 C 59 % 1026,5 hPa 0,0 l/m 0 min 0 min 137 W/m 16,1 km/h (3 Bft) 100,00 %
28.03.2021 17:50 14,0 C 13,9 C 11,1 C 60 % 1026,5 hPa 0,0 l/m 0 min 0 min 142 W/m 19,3 km/h (3 Bft) 97,87 %
28.03.2021 17:52 14,0 C 13,9 C 11,1 C 58 % 1026,5 hPa 0,0 l/m 0 min 0 min 145 W/m 19,3 km/h (3 Bft) 100,00 %
28.03.2021 17:54 14,0 C 13,9 C 11,1 C 59 % 1026,5 hPa 0,0 l/m 0 min 0 min 141 W/m 12,9 km/h (3 Bft) 100,00 %
28.03.2021 17:56 14,0 C 13,9 C 11,1 C 60 % 1026,5 hPa 0,0 l/m 0 min 0 min 131 W/m 16,1 km/h (3 Bft) 100,00 %
28.03.2021 17:58 14,0 C 13,9 C 11,1 C 59 % 1026,5 hPa 0,0 l/m 0 min 0 min 125 W/m 16,1 km/h (3 Bft) 100,00 %
28.03.2021 18:00 14,0 C 13,9 C 11,1 C 59 % 1026,5 hPa 0,0 l/m 0 min 0 min 121 W/m 16,1 km/h (3 Bft) 100,00 %
28.03.2021 18:02 14,0 C 13,9 C 11,1 C 60 % 1026,4 hPa 0,0 l/m 0 min 0 min 123 W/m 12,9 km/h (3 Bft) 100,00 %
28.03.2021 18:04 13,9 C 13,9 C 10,6 C 59 % 1026,4 hPa 0,0 l/m 0 min 0 min 123 W/m 22,5 km/h (4 Bft) 100,00 %
28.03.2021 18:08 13,9 C 13,3 C 10,6 C 59 % 1026,4 hPa 0,0 l/m 0 min 0 min 121 W/m 22,5 km/h (4 Bft) 100,00 %
28.03.2021 18:10 13,9 C 13,9 C 10,6 C 60 % 1026,5 hPa 0,0 l/m 0 min 0 min 121 W/m 6,4 km/h (2 Bft) 100,00 %
28.03.2021 18:12 13,9 C 13,9 C 10,6 C 60 % 1026,4 hPa 0,0 l/m 0 min 0 min 125 W/m 12,9 km/h (3 Bft) 97,83 %
28.03.2021 18:14 13,9 C 13,9 C 10,6 C 61 % 1026,4 hPa 0,0 l/m 0 min 0 min 121 W/m 32,2 km/h (5 Bft) 100,00 %
28.03.2021 18:16 13,9 C 13,9 C 10,6 C 60 % 1026,4 hPa 0,0 l/m 0 min 0 min 117 W/m 16,1 km/h (3 Bft) 100,00 %
28.03.2021 18:18 13,9 C 13,9 C 10,6 C 61 % 1026,5 hPa 0,0 l/m 0 min 0 min 114 W/m 22,5 km/h (4 Bft) 100,00 %
28.03.2021 18:20 13,9 C 13,9 C 10,6 C 61 % 1026,5 hPa 0,0 l/m 0 min 0 min 113 W/m 12,9 km/h (3 Bft) 100,00 %
28.03.2021 18:22 13,9 C 13,9 C 10,6 C 61 % 1026,5 hPa 0,0 l/m 0 min 0 min 117 W/m 6,4 km/h (2 Bft) 100,00 %
28.03.2021 18:24 13,9 C 13,9 C 10,6 C 62 % 1026,5 hPa 0,0 l/m 2 min 0 min 130 W/m 12,9 km/h (3 Bft) 100,00 %
28.03.2021 18:26 13,9 C 14,4 C 10,6 C 62 % 1026,5 hPa 0,0 l/m 2 min 0 min 134 W/m 19,3 km/h (3 Bft) 100,00 %
28.03.2021 18:28 13,9 C 14,4 C 10,6 C 61 % 1026,5 hPa 0,0 l/m 2 min 0 min 134 W/m 16,1 km/h (3 Bft) 97,87 %
28.03.2021 18:30 13,9 C 13,9 C 10,6 C 60 % 1026,5 hPa 0,0 l/m 2 min 0 min 116 W/m 25,7 km/h (4 Bft) 100,00 %
28.03.2021 18:32 13,9 C 13,9 C 10,6 C 60 % 1026,5 hPa 0,0 l/m 0 min 0 min 96 W/m 22,5 km/h (4 Bft) 100,00 %
28.03.2021 18:34 13,9 C 13,9 C 10,6 C 61 % 1026,5 hPa 0,0 l/m 0 min 0 min 83 W/m 25,7 km/h (4 Bft) 100,00 %
28.03.2021 18:36 13,9 C 13,3 C 10,6 C 61 % 1026,5 hPa 0,0 l/m 0 min 0 min 71 W/m 6,4 km/h (2 Bft) 95,65 %
28.03.2021 18:38 13,8 C 13,3 C 10,6 C 61 % 1026,5 hPa 0,0 l/m 0 min 0 min 63 W/m 12,9 km/h (3 Bft) 97,87 %
28.03.2021 18:40 13,8 C 13,3 C 10,6 C 61 % 1026,5 hPa 0,0 l/m 0 min 0 min 56 W/m 19,3 km/h (3 Bft) 97,87 %
28.03.2021 18:42 13,8 C 13,3 C 10,6 C 61 % 1026,6 hPa 0,0 l/m 0 min 0 min 53 W/m 16,1 km/h (3 Bft) 97,87 %
28.03.2021 18:44 13,7 C 13,3 C 10,6 C 61 % 1026,6 hPa 0,0 l/m 0 min 0 min 53 W/m 19,3 km/h (3 Bft) 93,62 %
28.03.2021 18:46 13,7 C 12,8 C 10,6 C 61 % 1026,6 hPa 0,0 l/m 0 min 0 min 53 W/m 12,9 km/h (3 Bft) 95,74 %
28.03.2021 18:48 13,6 C 12,8 C 10,6 C 61 % 1026,6 hPa 0,0 l/m 0 min 0 min 53 W/m 9,7 km/h (2 Bft) 95,65 %
28.03.2021 18:50 13,6 C 12,8 C 10,0 C 62 % 1026,6 hPa 0,0 l/m 0 min 0 min 50 W/m 22,5 km/h (4 Bft) 95,74 %
28.03.2021 18:52 13,6 C 12,8 C 10,0 C 62 % 1026,5 hPa 0,0 l/m 0 min 0 min 47 W/m 19,3 km/h (3 Bft) 93,62 %
28.03.2021 18:54 13,6 C 12,8 C 10,0 C 62 % 1026,5 hPa 0,0 l/m 0 min 0 min 46 W/m 16,1 km/h (3 Bft) 95,74 %
28.03.2021 18:56 13,5 C 12,8 C 10,0 C 62 % 1026,5 hPa 0,0 l/m 0 min 0 min 46 W/m 16,1 km/h (3 Bft) 95,74 %
28.03.2021 18:58 13,5 C 12,8 C 10,0 C 63 % 1026,5 hPa 0,0 l/m 0 min 0 min 47 W/m 19,3 km/h (3 Bft) 95,74 %
28.03.2021 19:00 13,5 C 12,8 C 10,0 C 62 % 1026,5 hPa 0,0 l/m 0 min 0 min 46 W/m 12,9 km/h (3 Bft) 97,83 %
28.03.2021 19:02 13,5 C 12,8 C 10,0 C 62 % 1026,5 hPa 0,0 l/m 0 min 0 min 44 W/m 19,3 km/h (3 Bft) 90,20 %
28.03.2021 19:04 13,5 C 12,8 C 10,0 C 63 % 1026,6 hPa 0,0 l/m 0 min 0 min 43 W/m 12,9 km/h (3 Bft) 97,67 %
28.03.2021 19:06 13,5 C 12,8 C 10,0 C 63 % 1026,5 hPa 0,0 l/m 0 min 0 min 39 W/m 25,7 km/h (4 Bft) 93,62 %
28.03.2021 19:08 13,5 C 12,8 C 10,0 C 63 % 1026,5 hPa 0,0 l/m 0 min 0 min 35 W/m 16,1 km/h (3 Bft) 95,74 %
28.03.2021 19:10 13,4 C 12,8 C 10,0 C 63 % 1026,5 hPa 0,0 l/m 0 min 0 min 33 W/m 19,3 km/h (3 Bft) 95,74 %
28.03.2021 19:12 13,4 C 12,8 C 10,0 C 63 % 1026,4 hPa 0,0 l/m 0 min 0 min 30 W/m 19,3 km/h (3 Bft) 95,65 %
28.03.2021 19:14 13,4 C 12,8 C 10,0 C 63 % 1026,4 hPa 0,0 l/m 0 min 0 min 28 W/m 16,1 km/h (3 Bft) 95,74 %
28.03.2021 19:16 13,4 C 12,8 C 10,0 C 63 % 1026,4 hPa 0,0 l/m 0 min 0 min 26 W/m 12,9 km/h (3 Bft) 93,62 %
28.03.2021 19:18 13,4 C 12,8 C 10,0 C 63 % 1026,4 hPa 0,0 l/m 0 min 0 min 26 W/m 16,1 km/h (3 Bft) 95,74 %
28.03.2021 19:20 13,3 C 12,8 C 10,0 C 64 % 1026,5 hPa 0,0 l/m 0 min 0 min 25 W/m 12,9 km/h (3 Bft) 93,62 %
28.03.2021 19:22 13,3 C 12,8 C 10,0 C 63 % 1026,6 hPa 0,0 l/m 0 min 0 min 23 W/m 16,1 km/h (3 Bft) 97,87 %
28.03.2021 19:24 13,3 C 12,8 C 10,0 C 63 % 1026,5 hPa 0,0 l/m 0 min 0 min 21 W/m 19,3 km/h (3 Bft) 95,65 %
28.03.2021 19:26 13,3 C 12,2 C 10,0 C 63 % 1026,5 hPa 0,0 l/m 0 min 0 min 20 W/m 22,5 km/h (4 Bft) 93,62 %
28.03.2021 19:28 13,3 C 12,2 C 10,0 C 63 % 1026,5 hPa 0,0 l/m 0 min 0 min 18 W/m 19,3 km/h (3 Bft) 95,74 %
28.03.2021 19:30 13,3 C 12,2 C 10,0 C 64 % 1026,5 hPa 0,0 l/m 0 min 0 min 17 W/m 12,9 km/h (3 Bft) 95,74 %
28.03.2021 19:32 13,2 C 12,2 C 9,5 C 64 % 1026,5 hPa 0,0 l/m 0 min 0 min 15 W/m 12,9 km/h (3 Bft) 95,83 %
28.03.2021 19:34 13,2 C 12,2 C 9,5 C 63 % 1026,5 hPa 0,0 l/m 0 min 0 min 14 W/m 22,5 km/h (4 Bft) 95,74 %
28.03.2021 19:36 13,1 C 12,2 C 9,5 C 64 % 1026,6 hPa 0,0 l/m 0 min 0 min 12 W/m 12,9 km/h (3 Bft) 93,48 %
28.03.2021 19:38 13,1 C 12,2 C 9,5 C 64 % 1026,5 hPa 0,0 l/m 0 min 0 min 11 W/m 16,1 km/h (3 Bft) 95,74 %
28.03.2021 19:40 13,1 C 12,2 C 9,5 C 64 % 1026,5 hPa 0,0 l/m 0 min 0 min 10 W/m 16,1 km/h (3 Bft) 95,74 %
28.03.2021 19:42 13,1 C 12,2 C 9,5 C 64 % 1026,5 hPa 0,0 l/m 0 min 0 min 9 W/m 9,7 km/h (2 Bft) 95,74 %
28.03.2021 19:44 13,1 C 12,2 C 9,5 C 64 % 1026,5 hPa 0,0 l/m 0 min 0 min 7 W/m 19,3 km/h (3 Bft) 95,74 %
28.03.2021 19:46 13,0 C 12,2 C 9,5 C 64 % 1026,6 hPa 0,0 l/m 0 min 0 min 6 W/m 16,1 km/h (3 Bft) 95,74 %
28.03.2021 19:48 13,0 C 12,2 C 9,5 C 65 % 1026,6 hPa 0,0 l/m 0 min 0 min 4 W/m 12,9 km/h (3 Bft) 97,83 %
28.03.2021 19:50 13,0 C 12,2 C 9,5 C 65 % 1026,6 hPa 0,0 l/m 0 min 0 min 0 W/m 16,1 km/h (3 Bft) 97,87 %
28.03.2021 19:52 13,0 C 12,2 C 9,5 C 65 % 1026,7 hPa 0,0 l/m 0 min 0 min 0 W/m 6,4 km/h (2 Bft) 95,74 %
28.03.2021 19:54 13,0 C 12,2 C 9,5 C 65 % 1026,7 hPa 0,0 l/m 0 min 0 min 0 W/m 16,1 km/h (3 Bft) 95,74 %
28.03.2021 19:56 13,0 C 12,2 C 9,5 C 65 % 1026,7 hPa 0,0 l/m 0 min 0 min 0 W/m 16,1 km/h (3 Bft) 95,00 %
28.03.2021 19:58 12,9 C 12,2 C 9,5 C 65 % 1026,7 hPa 0,0 l/m 0 min 0 min 0 W/m 9,7 km/h (2 Bft) 100,00 %
28.03.2021 20:00 12,9 C 12,2 C 9,5 C 65 % 1026,8 hPa 0,0 l/m 0 min 0 min 0 W/m 9,7 km/h (2 Bft) 100,00 %
28.03.2021 20:02 12,9 C 12,2 C 9,5 C 65 % 1026,8 hPa 0,0 l/m 0 min 0 min 0 W/m 16,1 km/h (3 Bft) 95,83 %
28.03.2021 20:04 12,9 C 12,2 C 9,5 C 66 % 1026,8 hPa 0,0 l/m 0 min 0 min 0 W/m 6,4 km/h (2 Bft) 97,87 %
28.03.2021 20:06 12,9 C 12,2 C 9,5 C 66 % 1026,8 hPa 0,0 l/m 0 min 0 min 0 W/m 12,9 km/h (3 Bft) 96,00 %
28.03.2021 20:08 12,8 C 12,2 C 9,5 C 66 % 1026,8 hPa 0,0 l/m 0 min 0 min 0 W/m 9,7 km/h (2 Bft) 97,73 %
28.03.2021 20:10 12,8 C 12,2 C 9,5 C 66 % 1026,8 hPa 0,0 l/m 0 min 0 min 0 W/m 3,2 km/h (1 Bft) 97,56 %
28.03.2021 20:12 12,8 C 12,2 C 9,5 C 66 % 1026,9 hPa 0,0 l/m 0 min 0 min 0 W/m 12,9 km/h (3 Bft) 95,74 %
28.03.2021 20:14 12,8 C 12,2 C 9,5 C 66 % 1026,9 hPa 0,0 l/m 0 min 0 min 0 W/m 9,7 km/h (2 Bft) 97,83 %
28.03.2021 20:16 12,8 C 11,7 C 9,5 C 66 % 1026,9 hPa 0,0 l/m 0 min 0 min 0 W/m 6,4 km/h (2 Bft) 100,00 %
28.03.2021 20:18 12,8 C 11,7 C 8,9 C 66 % 1026,9 hPa 0,0 l/m 0 min 0 min 0 W/m 19,3 km/h (3 Bft) 100,00 %
28.03.2021 20:20 12,7 C 11,7 C 9,5 C 66 % 1026,9 hPa 0,0 l/m 0 min 0 min 0 W/m 16,1 km/h (3 Bft) 95,74 %
28.03.2021 20:22 12,7 C 11,7 C 9,5 C 66 % 1027,0 hPa 0,0 l/m 0 min 0 min 0 W/m 9,7 km/h (2 Bft) 100,00 %
28.03.2021 20:24 12,7 C 11,7 C 9,5 C 66 % 1027,0 hPa 0,0 l/m 0 min 0 min 0 W/m 19,3 km/h (3 Bft) 100,00 %
28.03.2021 20:26 12,7 C 11,7 C 9,5 C 66 % 1026,9 hPa 0,0 l/m 0 min 0 min 0 W/m 6,4 km/h (2 Bft) 100,00 %
28.03.2021 20:28 12,7 C 11,7 C 8,9 C 66 % 1026,9 hPa 0,0 l/m 0 min 0 min 0 W/m 12,9 km/h (3 Bft) 100,00 %
28.03.2021 20:30 12,6 C 11,7 C 8,9 C 67 % 1027,0 hPa 0,0 l/m 0 min 0 min 0 W/m 9,7 km/h (2 Bft) 100,00 %
28.03.2021 20:32 12,6 C 11,7 C 8,9 C 67 % 1027,0 hPa 0,0 l/m 0 min 0 min 0 W/m 9,7 km/h (2 Bft) 97,87 %
28.03.2021 20:34 12,6 C 11,7 C 8,9 C 67 % 1027,0 hPa 0,0 l/m 0 min 0 min 0 W/m 9,7 km/h (2 Bft) 100,00 %
28.03.2021 20:36 12,6 C 11,7 C 8,9 C 67 % 1027,0 hPa 0,0 l/m 0 min 0 min 0 W/m 12,9 km/h (3 Bft) 100,00 %
28.03.2021 20:38 12,6 C 11,7 C 8,9 C 67 % 1027,1 hPa 0,0 l/m 0 min 0 min 0 W/m 3,2 km/h (1 Bft) 100,00 %
28.03.2021 20:40 12,5 C 11,7 C 8,9 C 67 % 1027,1 hPa 0,0 l/m 0 min 0 min 0 W/m 6,4 km/h (2 Bft) 100,00 %
28.03.2021 20:42 12,5 C 11,7 C 8,9 C 67 % 1027,1 hPa 0,0 l/m 0 min 0 min 0 W/m 6,4 km/h (2 Bft) 100,00 %
28.03.2021 20:44 12,5 C 11,7 C 8,9 C 67 % 1027,2 hPa 0,0 l/m 0 min 0 min 0 W/m 6,4 km/h (2 Bft) 100,00 %
28.03.2021 20:46 12,5 C 11,7 C 8,9 C 68 % 1027,2 hPa 0,0 l/m 0 min 0 min 0 W/m 3,2 km/h (1 Bft) 100,00 %
28.03.2021 20:48 12,4 C 11,7 C 8,9 C 68 % 1027,2 hPa 0,0 l/m 0 min 0 min 0 W/m 6,4 km/h (2 Bft) 100,00 %
28.03.2021 20:50 12,4 C 11,7 C 8,9 C 68 % 1027,2 hPa 0,0 l/m 0 min 0 min 0 W/m 6,4 km/h (2 Bft) 100,00 %
28.03.2021 20:52 12,4 C 11,1 C 8,9 C 68 % 1027,2 hPa 0,0 l/m 0 min 0 min 0 W/m 6,4 km/h (2 Bft) 100,00 %
28.03.2021 20:54 12,4 C 11,1 C 8,9 C 68 % 1027,2 hPa 0,0 l/m 0 min 0 min 0 W/m 3,2 km/h (1 Bft) 100,00 %
28.03.2021 20:56 12,3 C 11,1 C 8,9 C 68 % 1027,3 hPa 0,0 l/m 0 min 0 min 0 W/m 6,4 km/h (2 Bft) 100,00 %
28.03.2021 20:58 12,3 C 11,1 C 8,4 C 68 % 1027,3 hPa 0,0 l/m 0 min 0 min 0 W/m 3,2 km/h (1 Bft) 100,00 %
28.03.2021 21:00 12,3 C 11,1 C 8,4 C 68 % 1027,3 hPa 0,0 l/m 0 min 0 min 0 W/m 6,4 km/h (2 Bft) 100,00 %
28.03.2021 21:02 12,2 C 11,1 C 8,9 C 68 % 1027,3 hPa 0,0 l/m 0 min 0 min 0 W/m 12,9 km/h (3 Bft) 100,00 %
28.03.2021 21:04 12,2 C 11,1 C 8,4 C 69 % 1027,3 hPa 0,0 l/m 0 min 0 min 0 W/m 9,7 km/h (2 Bft) 100,00 %
28.03.2021 21:06 12,1 C 11,1 C 8,4 C 69 % 1027,3 hPa 0,0 l/m 0 min 0 min 0 W/m 6,4 km/h (2 Bft) 100,00 %
28.03.2021 21:08 12,1 C 11,1 C 8,4 C 69 % 1027,3 hPa 0,0 l/m 0 min 0 min 0 W/m 6,4 km/h (2 Bft) 100,00 %
28.03.2021 21:10 12,1 C 11,1 C 8,4 C 69 % 1027,3 hPa 0,0 l/m 0 min 0 min 0 W/m 3,2 km/h (1 Bft) 100,00 %
28.03.2021 21:12 12,1 C 11,1 C 8,4 C 69 % 1027,3 hPa 0,0 l/m 0 min 0 min 0 W/m 12,9 km/h (3 Bft) 100,00 %
28.03.2021 21:14 12,0 C 11,1 C 8,4 C 69 % 1027,3 hPa 0,0 l/m 0 min 0 min 0 W/m 9,7 km/h (2 Bft) 97,87 %
28.03.2021 21:16 12,0 C 11,1 C 8,4 C 69 % 1027,3 hPa 0,0 l/m 0 min 0 min 0 W/m 3,2 km/h (1 Bft) 100,00 %
28.03.2021 21:18 12,0 C 11,1 C 8,4 C 69 % 1027,3 hPa 0,0 l/m 0 min 0 min 0 W/m 6,4 km/h (2 Bft) 100,00 %
28.03.2021 21:20 12,0 C 11,1 C 8,4 C 69 % 1027,3 hPa 0,0 l/m 0 min 0 min 0 W/m 6,4 km/h (2 Bft) 100,00 %
28.03.2021 21:22 11,9 C 11,1 C 8,4 C 69 % 1027,3 hPa 0,0 l/m 0 min 0 min 0 W/m 3,2 km/h (1 Bft) 100,00 %
28.03.2021 21:24 11,9 C 10,6 C 8,4 C 69 % 1027,2 hPa 0,0 l/m 0 min 0 min 0 W/m 6,4 km/h (2 Bft) 97,83 %
28.03.2021 21:26 11,9 C 10,6 C 8,4 C 70 % 1027,3 hPa 0,0 l/m 0 min 0 min 0 W/m 6,4 km/h (2 Bft) 97,87 %
28.03.2021 21:28 11,9 C 10,6 C 8,4 C 70 % 1027,3 hPa 0,0 l/m 0 min 0 min 0 W/m 6,4 km/h (2 Bft) 97,87 %
28.03.2021 21:30 11,8 C 10,6 C 8,4 C 70 % 1027,3 hPa 0,0 l/m 0 min 0 min 0 W/m 3,2 km/h (1 Bft) 97,87 %
28.03.2021 21:32 11,8 C 10,6 C 8,4 C 70 % 1027,3 hPa 0,0 l/m 0 min 0 min 0 W/m 3,2 km/h (1 Bft) 97,87 %
28.03.2021 21:34 11,8 C 10,6 C 7,8 C 70 % 1027,3 hPa 0,0 l/m 0 min 0 min 0 W/m 3,2 km/h (1 Bft) 97,87 %
28.03.2021 21:36 11,8 C 10,6 C 7,8 C 70 % 1027,4 hPa 0,0 l/m 0 min 0 min 0 W/m 6,4 km/h (2 Bft) 95,65 %
28.03.2021 21:38 11,7 C 10,6 C 7,8 C 70 % 1027,4 hPa 0,0 l/m 0 min 0 min 0 W/m 6,4 km/h (2 Bft) 95,74 %
28.03.2021 21:40 11,7 C 10,6 C 7,8 C 70 % 1027,4 hPa 0,0 l/m 0 min 0 min 0 W/m 3,2 km/h (1 Bft) 93,62 %
28.03.2021 21:42 11,6 C 10,6 C 7,8 C 70 % 1027,4 hPa 0,0 l/m 0 min 0 min 0 W/m 6,4 km/h (2 Bft) 97,87 %
28.03.2021 21:44 11,6 C 10,6 C 7,8 C 70 % 1027,4 hPa 0,0 l/m 0 min 0 min 0 W/m 3,2 km/h (1 Bft) 95,74 %
28.03.2021 21:46 11,6 C 10,6 C 7,8 C 70 % 1027,4 hPa 0,0 l/m 0 min 0 min 0 W/m 9,7 km/h (2 Bft) 97,87 %
28.03.2021 21:48 11,5 C 10,6 C 7,8 C 70 % 1027,4 hPa 0,0 l/m 0 min 0 min 0 W/m 3,2 km/h (1 Bft) 97,87 %
28.03.2021 21:50 11,5 C 10,6 C 7,8 C 70 % 1027,5 hPa 0,0 l/m 0 min 0 min 0 W/m 6,4 km/h (2 Bft) 97,83 %
28.03.2021 21:52 11,5 C 10,6 C 7,8 C 70 % 1027,4 hPa 0,0 l/m 0 min 0 min 0 W/m 3,2 km/h (1 Bft) 93,62 %
28.03.2021 21:54 11,5 C 10,0 C 7,8 C 70 % 1027,5 hPa 0,0 l/m 0 min 0 min 0 W/m 6,4 km/h (2 Bft) 95,74 %
28.03.2021 21:56 11,4 C 10,6 C 7,8 C 70 % 1027,4 hPa 0,0 l/m 0 min 0 min 0 W/m 3,2 km/h (1 Bft) 93,62 %
28.03.2021 21:58 11,4 C 10,6 C 7,8 C 71 % 1027,4 hPa 0,0 l/m 0 min 0 min 0 W/m 6,4 km/h (2 Bft) 97,87 %
28.03.2021 22:00 11,4 C 10,0 C 7,8 C 71 % 1027,4 hPa 0,0 l/m 0 min 0 min 0 W/m 6,4 km/h (2 Bft) 97,83 %
28.03.2021 22:02 11,4 C 10,6 C 7,8 C 71 % 1027,5 hPa 0,0 l/m 0 min 0 min 0 W/m 6,4 km/h (2 Bft) 95,74 %
28.03.2021 22:04 11,4 C 10,0 C 7,8 C 71 % 1027,5 hPa 0,0 l/m 0 min 0 min 0 W/m 3,2 km/h (1 Bft) 95,74 %
28.03.2021 22:06 11,3 C 10,0 C 7,8 C 71 % 1027,5 hPa 0,0 l/m 0 min 0 min 0 W/m 3,2 km/h (1 Bft) 95,74 %
28.03.2021 22:08 11,3 C 10,0 C 7,8 C 71 % 1027,5 hPa 0,0 l/m 0 min 0 min 0 W/m 6,4 km/h (2 Bft) 95,74 %
28.03.2021 22:10 11,3 C 10,0 C 7,8 C 71 % 1027,5 hPa 0,0 l/m 0 min 0 min 0 W/m 9,7 km/h (2 Bft) 95,74 %
28.03.2021 22:12 11,3 C 10,0 C 7,8 C 71 % 1027,5 hPa 0,0 l/m 0 min 0 min 0 W/m 3,2 km/h (1 Bft) 94,64 %
28.03.2021 22:14 11,3 C 10,0 C 7,8 C 71 % 1027,5 hPa 0,0 l/m 0 min 0 min 0 W/m 6,4 km/h (2 Bft) 95,74 %
28.03.2021 22:16 11,2 C 10,0 C 7,3 C 71 % 1027,6 hPa 0,0 l/m 0 min 0 min 0 W/m 3,2 km/h (1 Bft) 97,87 %
28.03.2021 22:18 11,2 C 10,0 C 7,8 C 71 % 1027,6 hPa 0,0 l/m 0 min 0 min 0 W/m 9,7 km/h (2 Bft) 97,87 %
28.03.2021 22:20 11,2 C 10,0 C 7,8 C 71 % 1027,6 hPa 0,0 l/m 0 min 0 min 0 W/m 6,4 km/h (2 Bft) 97,83 %
28.03.2021 22:22 11,2 C 10,0 C 7,8 C 71 % 1027,6 hPa 0,0 l/m 0 min 0 min 0 W/m 6,4 km/h (2 Bft) 93,62 %
28.03.2021 22:24 11,1 C 10,0 C 7,8 C 71 % 1027,6 hPa 0,0 l/m 0 min 0 min 0 W/m 6,4 km/h (2 Bft) 93,62 %
28.03.2021 22:26 11,1 C 10,0 C 7,3 C 71 % 1027,6 hPa 0,0 l/m 0 min 0 min 0 W/m 6,4 km/h (2 Bft) 97,87 %
28.03.2021 22:28 11,1 C 10,0 C 7,3 C 71 % 1027,6 hPa 0,0 l/m 0 min 0 min 0 W/m 9,7 km/h (2 Bft) 97,87 %
28.03.2021 22:30 11,1 C 10,0 C 7,3 C 71 % 1027,6 hPa 0,0 l/m 0 min 0 min 0 W/m 6,4 km/h (2 Bft) 95,74 %
28.03.2021 22:32 11,1 C 10,0 C 7,3 C 71 % 1027,6 hPa 0,0 l/m 0 min 0 min 0 W/m 6,4 km/h (2 Bft) 97,87 %
28.03.2021 22:34 11,1 C 10,0 C 7,3 C 71 % 1027,6 hPa 0,0 l/m 0 min 0 min 0 W/m 3,2 km/h (1 Bft) 93,62 %
28.03.2021 22:36 11,1 C 10,0 C 7,3 C 71 % 1027,7 hPa 0,0 l/m 0 min 0 min 0 W/m 0,0 km/h (0 Bft) 93,62 %
28.03.2021 22:38 11,1 C 10,0 C 7,3 C 72 % 1027,7 hPa 0,0 l/m 0 min 0 min 0 W/m 3,2 km/h (1 Bft) 95,74 %
28.03.2021 22:40 11,0 C 10,0 C 7,3 C 72 % 1027,7 hPa 0,0 l/m 0 min 0 min 0 W/m 3,2 km/h (1 Bft) 95,74 %
28.03.2021 22:42 11,0 C 10,0 C 7,3 C 72 % 1027,7 hPa 0,0 l/m 0 min 0 min 0 W/m 3,2 km/h (1 Bft) 91,49 %
28.03.2021 22:44 11,0 C 10,0 C 7,3 C 72 % 1027,8 hPa 0,0 l/m 0 min 0 min 0 W/m 6,4 km/h (2 Bft) 95,65 %
28.03.2021 22:46 11,0 C 10,0 C 7,3 C 72 % 1027,8 hPa 0,0 l/m 0 min 0 min 0 W/m 3,2 km/h (1 Bft) 97,87 %
28.03.2021 22:48 10,9 C 10,0 C 7,3 C 72 % 1027,7 hPa 0,0 l/m 0 min 0 min 0 W/m 3,2 km/h (1 Bft) 97,87 %
28.03.2021 22:50 10,9 C 9,4 C 7,3 C 72 % 1027,7 hPa 0,0 l/m 0 min 0 min 0 W/m 6,4 km/h (2 Bft) 97,87 %
28.03.2021 22:52 10,9 C 9,4 C 7,3 C 72 % 1027,7 hPa 0,0 l/m 0 min 0 min 0 W/m 12,9 km/h (3 Bft) 97,87 %
28.03.2021 22:54 10,8 C 9,4 C 7,3 C 73 % 1027,7 hPa 0,0 l/m 0 min 0 min 0 W/m 12,9 km/h (3 Bft) 93,48 %
28.03.2021 22:56 10,8 C 9,4 C 7,3 C 73 % 1027,7 hPa 0,0 l/m 0 min 0 min 0 W/m 6,4 km/h (2 Bft) 95,74 %
28.03.2021 22:58 10,8 C 9,4 C 7,3 C 73 % 1027,7 hPa 0,0 l/m 0 min 0 min 0 W/m 9,7 km/h (2 Bft) 97,87 %
28.03.2021 23:00 10,8 C 9,4 C 7,3 C 73 % 1027,7 hPa 0,0 l/m 0 min 0 min 0 W/m 9,7 km/h (2 Bft) 95,74 %
28.03.2021 23:02 10,7 C 9,4 C 7,3 C 73 % 1027,7 hPa 0,0 l/m 0 min 0 min 0 W/m 6,4 km/h (2 Bft) 97,92 %
28.03.2021 23:04 10,7 C 9,4 C 7,3 C 73 % 1027,8 hPa 0,0 l/m 0 min 0 min 0 W/m 9,7 km/h (2 Bft) 97,92 %
28.03.2021 23:06 10,7 C 9,4 C 7,3 C 73 % 1027,8 hPa 0,0 l/m 0 min 0 min 0 W/m 9,7 km/h (2 Bft) 97,87 %
28.03.2021 23:08 10,6 C 9,4 C 7,3 C 73 % 1027,8 hPa 0,0 l/m 0 min 0 min 0 W/m 9,7 km/h (2 Bft) 93,48 %
28.03.2021 23:10 10,6 C 9,4 C 7,3 C 74 % 1027,8 hPa 0,0 l/m 0 min 0 min 0 W/m 9,7 km/h (2 Bft) 97,87 %
28.03.2021 23:12 10,6 C 9,4 C 7,3 C 74 % 1027,7 hPa 0,0 l/m 0 min 0 min 0 W/m 9,7 km/h (2 Bft) 97,87 %
28.03.2021 23:14 10,6 C 9,4 C 7,3 C 74 % 1027,8 hPa 0,0 l/m 0 min 0 min 0 W/m 9,7 km/h (2 Bft) 97,78 %
28.03.2021 23:16 10,6 C 9,4 C 7,3 C 74 % 1027,8 hPa 0,0 l/m 0 min 0 min 0 W/m 6,4 km/h (2 Bft) 91,49 %
28.03.2021 23:18 10,6 C 9,4 C 6,7 C 74 % 1027,8 hPa 0,0 l/m 0 min 0 min 0 W/m 9,7 km/h (2 Bft) 97,87 %
28.03.2021 23:20 10,5 C 9,4 C 6,7 C 74 % 1027,8 hPa 0,0 l/m 0 min 0 min 0 W/m 3,2 km/h (1 Bft) 97,87 %
28.03.2021 23:22 10,5 C 9,4 C 6,7 C 74 % 1027,9 hPa 0,0 l/m 0 min 0 min 0 W/m 6,4 km/h (2 Bft) 97,87 %
28.03.2021 23:24 10,5 C 9,4 C 6,7 C 74 % 1027,8 hPa 0,0 l/m 0 min 0 min 0 W/m 6,4 km/h (2 Bft) 97,87 %
28.03.2021 23:26 10,4 C 9,4 C 6,7 C 74 % 1027,9 hPa 0,0 l/m 0 min 0 min 0 W/m 6,4 km/h (2 Bft) 95,74 %
28.03.2021 23:28 10,4 C 9,4 C 6,7 C 74 % 1027,8 hPa 0,0 l/m 0 min 0 min 0 W/m 6,4 km/h (2 Bft) 97,87 %
28.03.2021 23:30 10,4 C 9,4 C 6,7 C 75 % 1027,9 hPa 0,0 l/m 0 min 0 min 0 W/m 3,2 km/h (1 Bft) 97,83 %
28.03.2021 23:32 10,4 C 9,4 C 6,7 C 75 % 1027,9 hPa 0,0 l/m 0 min 0 min 0 W/m 6,4 km/h (2 Bft) 97,92 %
28.03.2021 23:34 10,3 C 9,4 C 6,7 C 75 % 1028,0 hPa 0,0 l/m 0 min 0 min 0 W/m 3,2 km/h (1 Bft) 97,87 %
28.03.2021 23:36 10,3 C 8,9 C 6,7 C 75 % 1027,9 hPa 0,0 l/m 0 min 0 min 0 W/m 3,2 km/h (1 Bft) 95,74 %
28.03.2021 23:38 10,3 C 8,9 C 6,7 C 75 % 1028,0 hPa 0,0 l/m 0 min 0 min 0 W/m 3,2 km/h (1 Bft) 97,87 %
28.03.2021 23:40 10,3 C 8,9 C 6,7 C 75 % 1028,0 hPa 0,0 l/m 0 min 0 min 0 W/m 3,2 km/h (1 Bft) 97,87 %
28.03.2021 23:42 10,2 C 8,9 C 6,7 C 75 % 1028,0 hPa 0,0 l/m 0 min 0 min 0 W/m 3,2 km/h (1 Bft) 97,22 %
28.03.2021 23:44 10,1 C 8,9 C 6,7 C 75 % 1028,0 hPa 0,0 l/m 0 min 0 min 0 W/m 3,2 km/h (1 Bft) 98,28 %
28.03.2021 23:46 10,1 C 8,9 C 6,1 C 75 % 1028,0 hPa 0,0 l/m 0 min 0 min 0 W/m 3,2 km/h (1 Bft) 97,14 %
28.03.2021 23:48 10,1 C 8,9 C 6,1 C 76 % 1028,0 hPa 0,0 l/m 0 min 0 min 0 W/m 0,0 km/h (0 Bft) 97,87 %
28.03.2021 23:50 10,1 C 8,9 C 6,1 C 76 % 1028,0 hPa 0,0 l/m 0 min 0 min 0 W/m 0,0 km/h (0 Bft) 97,87 %
28.03.2021 23:52 10,0 C 8,3 C 6,1 C 76 % 1028,0 hPa 0,0 l/m 0 min 0 min 0 W/m 3,2 km/h (1 Bft) 100,00 %
28.03.2021 23:54 10,0 C 8,3 C 6,1 C 76 % 1028,1 hPa 0,0 l/m 0 min 0 min 0 W/m 3,2 km/h (1 Bft) 100,00 %
28.03.2021 23:56 10,0 C 8,3 C 6,1 C 76 % 1028,1 hPa 0,0 l/m 0 min 0 min 0 W/m 3,2 km/h (1 Bft) 100,00 %
28.03.2021 23:58 9,9 C 8,3 C 6,1 C 76 % 1028,1 hPa 0,0 l/m 0 min 0 min 0 W/m 3,2 km/h (1 Bft) 100,00 %
_ Min-Zeit 00:00 00:00 00:00 14:56 16:12 - - - - 04:38 05:32
Minimum _ 5,1 C 4,4 C 2,3 C 54 % 1026,3 hPa - - - - 0,0 km/h (0 Bft) 55,32 %
_ Max-Zeit 14:18 12:40 12:04 07:38 23:54 00:00 12:08 00:00 12:18 13:22 00:04
Maximum _ 14,7 C 17,2 C 19,5 C 86 % 1028,1 hPa 0,0 l/m 4 min 0 min 821 W/m 54,7 km/h
W (7 Bft)
100,00 %
Durchschnitt _ 10,0 C 10,0 C 7,7 C 71 % 1027,1 hPa #0,0 l/m #6:18 h #0 min. 278 W/m 15,8 km/h (3 Bft) 97,47 %
© 2021 W. Hausmann